Darstellungsparameter: Aktuell verwendete Einstellungen:
Skalierung der Graphiken ... ?
xyx+y,   Skalierungsfaktor:      Skalierung: Modus: x, Faktor: 1
Darstellungszeitraum ... ?
Vom - - bis: - -   Zeitraum: 22.12.2015 - 28.12.2015
Min/Max/Avg-Anzeige ... ?
Zeige MMA aktuell
Zeige MMA Monat
Zeige MMA alles
Zeige --A aktuell
Zeige --A Monat
Zeige --A alles
Keine MMA-Anzeige
MMA:
Average (ber die Originaldaten)
MMA-Basis: 22.12.2015 - 28.12.2015
Quicknavigation für Darstellung... ?
Tage:      1T, 2T, 3T, 5T -1T -2T -3T -5T +1T +2T +3T +5T
Wochen: 1W, 2W, 3W -1W -2W -3W +1W +2W +3W
Monate: 1M, 3M, 6M -1M -3M -6M +1M +3M +6M
Jahre:    1J, 3J, 5J, 10J -1J -3J -5J -10J +1J +3J +5J +10J
Nutze für die Darstellung ... ?
Originaldaten oder Mittelwerte auf ...
Stundenbasis Tagesbasis Wochenbasis
Monatsbasis Jahresbasis      Datenbasis: Original-Daten
Darstellen als:
Statistik (Auto) Statistik J:M      Darstellung:
Zur Graphik,    zurück zur Übersicht aller Sensoren.
 
Tabellarische Datenbersicht: ?
 
Sensor: Nr:Datum:Temp:Abs-Feuchte:Windchill:Wind:
Aussen-T/F 1 22-12-2015 00:00:00 10.9 C 8.65 g/m*3 8.73 C 17.7 km/h
2 22-12-2015 00:05:00 10.9 C 8.65 g/m*3 9.51 C 11.3 km/h
3 22-12-2015 00:10:00 10.9 C 8.65 g/m*3 9.51 C 11.3 km/h
4 22-12-2015 00:15:00 10.9 C 8.65 g/m*3 8.3 C 22.5 km/h
5 22-12-2015 00:20:00 10.9 C 8.75 g/m*3 8.58 C 19.3 km/h
6 22-12-2015 00:25:00 10.9 C 8.75 g/m*3 8.73 C 17.7 km/h
7 22-12-2015 00:30:00 10.9 C 8.65 g/m*3 8.73 C 17.7 km/h
8 22-12-2015 00:35:00 10.9 C 8.65 g/m*3 8.58 C 19.3 km/h
9 22-12-2015 00:40:00 10.9 C 8.65 g/m*3 8.9 C 16.1 km/h
10 22-12-2015 00:45:00 10.9 C 8.65 g/m*3 9.76 C 9.7 km/h
11 22-12-2015 00:50:00 10.9 C 8.65 g/m*3 10.04 C 8.1 km/h
12 22-12-2015 00:55:00 10.9 C 8.65 g/m*3 9.76 C 9.7 km/h
13 22-12-2015 01:00:00 10.9 C 8.65 g/m*3 9.28 C 12.9 km/h
14 22-12-2015 01:05:00 10.9 C 8.65 g/m*3 9.76 C 9.7 km/h
15 22-12-2015 01:10:00 10.9 C 8.65 g/m*3 9.76 C 9.7 km/h
16 22-12-2015 01:15:00 10.9 C 8.65 g/m*3 9.08 C 14.5 km/h
17 22-12-2015 01:20:00 11 C 8.71 g/m*3 9.21 C 14.5 km/h
18 22-12-2015 01:25:00 11 C 8.71 g/m*3 10.52 C 6.4 km/h
19 22-12-2015 01:30:00 10.9 C 8.75 g/m*3 9.51 C 11.3 km/h
20 22-12-2015 01:35:00 11 C 8.81 g/m*3 9.88 C 9.7 km/h
21 22-12-2015 01:40:00 11 C 8.81 g/m*3 9.63 C 11.3 km/h
22 22-12-2015 01:45:00 11.1 C 8.76 g/m*3 11.1 C 16.1 km/h
23 22-12-2015 01:50:00 11.1 C 8.86 g/m*3 11.1 C 14.5 km/h
24 22-12-2015 01:55:00 11.1 C 8.86 g/m*3 11.1 C 14.5 km/h
25 22-12-2015 02:00:00 11.1 C 8.76 g/m*3 11.1 C 19.3 km/h
Sensor: Nr:Datum:Temp:Abs-Feuchte:Windchill:Wind:
Aussen-T/F 26 22-12-2015 02:05:00 11.1 C 8.86 g/m*3 11.1 C 12.9 km/h
27 22-12-2015 02:10:00 11.1 C 8.86 g/m*3 11.1 C 11.3 km/h
28 22-12-2015 02:15:00 11.1 C 8.86 g/m*3 11.1 C 17.7 km/h
29 22-12-2015 02:20:00 11 C 8.81 g/m*3 9.88 C 9.7 km/h
30 22-12-2015 02:25:00 11 C 8.81 g/m*3 9.88 C 9.7 km/h
31 22-12-2015 02:30:00 11 C 8.81 g/m*3 9.4 C 12.9 km/h
32 22-12-2015 02:35:00 11 C 8.81 g/m*3 9.63 C 11.3 km/h
33 22-12-2015 02:40:00 10.9 C 8.75 g/m*3 8.9 C 16.1 km/h
34 22-12-2015 02:45:00 10.9 C 8.75 g/m*3 9.28 C 12.9 km/h
35 22-12-2015 02:50:00 10.9 C 8.75 g/m*3 8.58 C 19.3 km/h
36 22-12-2015 02:55:00 11 C 8.81 g/m*3 8.7 C 19.3 km/h
37 22-12-2015 03:00:00 11 C 8.81 g/m*3 8.86 C 17.7 km/h
38 22-12-2015 03:05:00 11 C 8.81 g/m*3 9.02 C 16.1 km/h
39 22-12-2015 03:10:00 11 C 8.71 g/m*3 9.63 C 11.3 km/h
40 22-12-2015 03:15:00 11.1 C 8.76 g/m*3 11.1 C 12.9 km/h
41 22-12-2015 03:20:00 11.1 C 8.76 g/m*3 11.1 C 9.7 km/h
42 22-12-2015 03:25:00 11.1 C 8.76 g/m*3 11.1 C 12.9 km/h
43 22-12-2015 03:30:00 11 C 8.71 g/m*3 8.7 C 19.3 km/h
44 22-12-2015 03:35:00 11.1 C 8.76 g/m*3 11.1 C 17.7 km/h
45 22-12-2015 03:40:00 11.1 C 8.76 g/m*3 11.1 C 12.9 km/h
46 22-12-2015 03:45:00 11.1 C 8.76 g/m*3 11.1 C 16.1 km/h
47 22-12-2015 03:50:00 11.1 C 8.76 g/m*3 11.1 C 22.5 km/h
48 22-12-2015 03:55:00 11.1 C 8.76 g/m*3 11.1 C 17.7 km/h
49 22-12-2015 04:00:00 11.1 C 8.76 g/m*3 11.1 C 17.7 km/h
50 22-12-2015 04:05:00 11.1 C 8.76 g/m*3 11.1 C 16.1 km/h
Sensor: Nr:Datum:Temp:Abs-Feuchte:Windchill:Wind:
Aussen-T/F 51 22-12-2015 04:10:00 11.1 C 8.76 g/m*3 11.1 C 19.3 km/h
52 22-12-2015 04:15:00 11.1 C 8.76 g/m*3 11.1 C 19.3 km/h
53 22-12-2015 04:20:00 11.1 C 8.76 g/m*3 11.1 C 24.1 km/h
54 22-12-2015 04:25:00 11.1 C 8.76 g/m*3 11.1 C 22.5 km/h
55 22-12-2015 04:30:00 11.1 C 8.76 g/m*3 11.1 C 17.7 km/h
56 22-12-2015 04:35:00 11.1 C 8.76 g/m*3 11.1 C 16.1 km/h
57 22-12-2015 04:40:00 11.1 C 8.76 g/m*3 11.1 C 19.3 km/h
58 22-12-2015 04:45:00 11.1 C 8.86 g/m*3 11.1 C 11.3 km/h
59 22-12-2015 04:50:00 11 C 8.81 g/m*3 8.7 C 19.3 km/h
60 22-12-2015 04:55:00 11 C 8.71 g/m*3 9.4 C 12.9 km/h
61 22-12-2015 05:00:00 11.1 C 8.76 g/m*3 11.1 C 14.5 km/h
62 22-12-2015 05:05:00 11.1 C 8.76 g/m*3 11.1 C 12.9 km/h
63 22-12-2015 05:10:00 11.1 C 8.76 g/m*3 11.1 C 19.3 km/h
64 22-12-2015 05:15:00 11.1 C 8.76 g/m*3 11.1 C 16.1 km/h
65 22-12-2015 05:20:00 11.1 C 8.86 g/m*3 11.1 C 11.3 km/h
66 22-12-2015 05:25:00 11.1 C 8.86 g/m*3 11.1 C 14.5 km/h
67 22-12-2015 05:30:00 11 C 8.81 g/m*3 9.02 C 16.1 km/h
68 22-12-2015 05:35:00 11 C 8.81 g/m*3 9.4 C 12.9 km/h
69 22-12-2015 05:40:00 10.9 C 8.75 g/m*3 9.51 C 11.3 km/h
70 22-12-2015 05:45:00 11 C 8.81 g/m*3 8.86 C 17.7 km/h
71 22-12-2015 05:50:00 11 C 8.81 g/m*3 9.4 C 12.9 km/h
72 22-12-2015 05:55:00 11.1 C 8.86 g/m*3 11.1 C 14.5 km/h
73 22-12-2015 06:00:00 11.1 C 8.86 g/m*3 11.1 C 12.9 km/h
74 22-12-2015 06:05:00 11.1 C 8.86 g/m*3 11.1 C 16.1 km/h
75 22-12-2015 06:10:00 11.1 C 8.96 g/m*3 11.1 C 16.1 km/h
Sensor: Nr:Datum:Temp:Abs-Feuchte:Windchill:Wind:
Aussen-T/F 76 22-12-2015 06:15:00 11 C 8.91 g/m*3 8.86 C 17.7 km/h
77 22-12-2015 06:20:00 10.9 C 8.85 g/m*3 8.58 C 19.3 km/h
78 22-12-2015 06:25:00 10.9 C 8.85 g/m*3 8.73 C 17.7 km/h
79 22-12-2015 06:30:00 10.9 C 8.85 g/m*3 9.08 C 14.5 km/h
80 22-12-2015 06:35:00 10.9 C 8.85 g/m*3 8.43 C 20.9 km/h
81 22-12-2015 06:40:00 10.9 C 8.85 g/m*3 8.9 C 16.1 km/h
82 22-12-2015 06:45:00 10.9 C 8.95 g/m*3 8.9 C 16.1 km/h
83 22-12-2015 06:50:00 10.9 C 8.95 g/m*3 9.08 C 14.5 km/h
84 22-12-2015 06:55:00 10.8 C 8.9 g/m*3 8.61 C 17.7 km/h
85 22-12-2015 07:00:00 10.8 C 8.99 g/m*3 8.45 C 19.3 km/h
86 22-12-2015 07:05:00 10.7 C 8.94 g/m*3 9.52 C 9.7 km/h
87 22-12-2015 07:10:00 10.7 C 8.94 g/m*3 8.84 C 14.5 km/h
88 22-12-2015 07:15:00 10.8 C 8.9 g/m*3 8.96 C 14.5 km/h
89 22-12-2015 07:20:00 10.8 C 8.9 g/m*3 8.78 C 16.1 km/h
90 22-12-2015 07:25:00 10.8 C 8.9 g/m*3 9.64 C 9.7 km/h
91 22-12-2015 07:30:00 10.9 C 8.95 g/m*3 9.76 C 9.7 km/h
92 22-12-2015 07:35:00 10.9 C 8.85 g/m*3 8.58 C 19.3 km/h
93 22-12-2015 07:40:00 11.1 C 8.96 g/m*3 11.1 C 14.5 km/h
94 22-12-2015 07:45:00 11.1 C 8.96 g/m*3 11.1 C 24.1 km/h
95 22-12-2015 07:50:00 11.1 C 8.96 g/m*3 11.1 C 9.7 km/h
96 22-12-2015 07:55:00 11.2 C 8.92 g/m*3 11.2 C 16.1 km/h
97 22-12-2015 08:00:00 11.2 C 8.92 g/m*3 11.2 C 20.9 km/h
98 22-12-2015 08:05:00 11.2 C 8.92 g/m*3 11.2 C 11.3 km/h
99 22-12-2015 08:10:00 11.2 C 8.92 g/m*3 11.2 C 12.9 km/h
100 22-12-2015 08:15:00 11.2 C 8.92 g/m*3 11.2 C 19.3 km/h
Sensor: Nr:Datum:Temp:Abs-Feuchte:Windchill:Wind:
Aussen-T/F 101 22-12-2015 08:20:00 11.2 C 8.92 g/m*3 11.2 C 19.3 km/h
102 22-12-2015 08:25:00 11.2 C 8.92 g/m*3 11.2 C 14.5 km/h
103 22-12-2015 08:30:00 11.2 C 8.92 g/m*3 11.2 C 16.1 km/h
104 22-12-2015 08:35:00 11.2 C 8.92 g/m*3 11.2 C 16.1 km/h
105 22-12-2015 08:40:00 11.2 C 9.02 g/m*3 11.2 C 14.5 km/h
106 22-12-2015 08:45:00 11.2 C 9.02 g/m*3 11.2 C 9.7 km/h
107 22-12-2015 08:50:00 11.2 C 9.02 g/m*3 11.2 C 12.9 km/h
108 22-12-2015 08:55:00 11.2 C 9.02 g/m*3 11.2 C 20.9 km/h
109 22-12-2015 09:00:00 11.2 C 9.02 g/m*3 11.2 C 14.5 km/h
110 22-12-2015 09:05:00 11.2 C 9.02 g/m*3 11.2 C 25.7 km/h
111 22-12-2015 09:10:00 11.2 C 8.92 g/m*3 11.2 C 22.5 km/h
112 22-12-2015 09:15:00 11.3 C 8.98 g/m*3 11.3 C 22.5 km/h
113 22-12-2015 09:20:00 11.3 C 8.98 g/m*3 11.3 C 17.7 km/h
114 22-12-2015 09:25:00 11.3 C 8.87 g/m*3 11.3 C 20.9 km/h
115 22-12-2015 09:30:00 11.4 C 8.93 g/m*3 11.4 C 14.5 km/h
116 22-12-2015 09:35:00 11.4 C 8.93 g/m*3 11.4 C 17.7 km/h
117 22-12-2015 09:40:00 11.5 C 8.88 g/m*3 11.5 C 25.7 km/h
118 22-12-2015 09:45:00 11.6 C 8.94 g/m*3 11.6 C 17.7 km/h
119 22-12-2015 09:50:00 11.6 C 8.94 g/m*3 11.6 C 16.1 km/h
120 22-12-2015 09:55:00 11.6 C 8.83 g/m*3 11.6 C 16.1 km/h
121 22-12-2015 10:00:00 11.7 C 8.89 g/m*3 11.7 C 27.4 km/h
122 22-12-2015 10:05:00 11.7 C 8.79 g/m*3 11.7 C 20.9 km/h
123 22-12-2015 10:10:00 11.8 C 8.84 g/m*3 11.8 C 17.7 km/h
124 22-12-2015 10:15:00 11.8 C 8.84 g/m*3 11.8 C 20.9 km/h
125 22-12-2015 10:20:00 11.9 C 8.9 g/m*3 11.9 C 25.7 km/h
Sensor: Nr:Datum:Temp:Abs-Feuchte:Windchill:Wind:
Aussen-T/F 126 22-12-2015 10:25:00 12 C 8.85 g/m*3 12 C 24.1 km/h
127 22-12-2015 10:30:00 12.1 C 8.9 g/m*3 12.1 C 20.9 km/h
128 22-12-2015 10:35:00 12.2 C 8.96 g/m*3 12.2 C 24.1 km/h
129 22-12-2015 10:40:00 12.2 C 8.96 g/m*3 12.2 C 16.1 km/h
130 22-12-2015 10:45:00 12.2 C 8.96 g/m*3 12.2 C 19.3 km/h
131 22-12-2015 10:50:00 12.2 C 8.96 g/m*3 12.2 C 22.5 km/h
132 22-12-2015 10:55:00 12.2 C 8.96 g/m*3 12.2 C 12.9 km/h
133 22-12-2015 11:00:00 12.1 C 8.9 g/m*3 12.1 C 9.7 km/h
134 22-12-2015 11:05:00 12.2 C 8.96 g/m*3 12.2 C 9.7 km/h
135 22-12-2015 11:10:00 12.2 C 8.96 g/m*3 12.2 C 14.5 km/h
136 22-12-2015 11:15:00 12.2 C 8.96 g/m*3 12.2 C 9.7 km/h
137 22-12-2015 11:20:00 12.3 C 9.01 g/m*3 12.3 C 12.9 km/h
138 22-12-2015 11:25:00 12.3 C 9.01 g/m*3 12.3 C 8.1 km/h
139 22-12-2015 11:30:00 12.3 C 8.9 g/m*3 12.3 C 9.7 km/h
140 22-12-2015 11:35:00 12.3 C 9.01 g/m*3 12.3 C 12.9 km/h
141 22-12-2015 11:40:00 12.3 C 8.9 g/m*3 12.3 C 11.3 km/h
142 22-12-2015 11:45:00 12.4 C 8.96 g/m*3 12.4 C 16.1 km/h
143 22-12-2015 11:50:00 12.4 C 8.96 g/m*3 12.4 C 12.9 km/h
144 22-12-2015 11:55:00 12.4 C 8.96 g/m*3 12.4 C 12.9 km/h
145 22-12-2015 12:00:00 12.5 C 9.02 g/m*3 12.5 C 17.7 km/h
146 22-12-2015 12:05:00 12.5 C 9.02 g/m*3 12.5 C 12.9 km/h
147 22-12-2015 12:10:00 12.6 C 8.96 g/m*3 12.6 C 14.5 km/h
148 22-12-2015 12:15:00 12.5 C 8.91 g/m*3 12.5 C 11.3 km/h
149 22-12-2015 12:20:00 12.5 C 9.02 g/m*3 12.5 C 16.1 km/h
150 22-12-2015 12:25:00 12.6 C 8.96 g/m*3 12.6 C 19.3 km/h
Sensor: Nr:Datum:Temp:Abs-Feuchte:Windchill:Wind:
Aussen-T/F 151 22-12-2015 12:30:00 12.6 C 8.96 g/m*3 12.6 C 11.3 km/h
152 22-12-2015 12:35:00 12.6 C 8.96 g/m*3 12.6 C 11.3 km/h
153 22-12-2015 12:40:00 12.6 C 8.96 g/m*3 12.6 C 14.5 km/h
154 22-12-2015 14:40:00 13.2 C 8.61 g/m*3 13.2 C 17.7 km/h
155 22-12-2015 14:45:00 13.1 C 8.56 g/m*3 13.1 C 9.7 km/h
156 22-12-2015 14:50:00 13.1 C 8.44 g/m*3 13.1 C 11.3 km/h
157 22-12-2015 14:55:00 13.1 C 8.44 g/m*3 13.1 C 17.7 km/h
158 22-12-2015 15:00:00 13.1 C 8.44 g/m*3 13.1 C 19.3 km/h
159 22-12-2015 15:05:00 13.1 C 8.44 g/m*3 13.1 C 11.3 km/h
160 22-12-2015 15:10:00 13.1 C 8.44 g/m*3 13.1 C 11.3 km/h
161 22-12-2015 15:15:00 13.1 C 8.44 g/m*3 13.1 C 6.4 km/h
162 22-12-2015 15:20:00 13.1 C 8.33 g/m*3 13.1 C 8.1 km/h
163 22-12-2015 15:25:00 13 C 8.39 g/m*3 13 C 6.4 km/h
164 22-12-2015 15:30:00 12.9 C 8.34 g/m*3 12.9 C 11.3 km/h
165 22-12-2015 15:35:00 12.9 C 8.34 g/m*3 12.9 C 9.7 km/h
166 22-12-2015 15:40:00 12.9 C 8.34 g/m*3 12.9 C 14.5 km/h
167 22-12-2015 15:45:00 12.9 C 8.34 g/m*3 12.9 C 9.7 km/h
168 22-12-2015 15:50:00 12.8 C 8.29 g/m*3 12.8 C 8.1 km/h
169 22-12-2015 15:55:00 12.8 C 8.29 g/m*3 12.8 C 8.1 km/h
170 22-12-2015 16:00:00 12.8 C 8.4 g/m*3 12.8 C 6.4 km/h
171 22-12-2015 16:05:00 12.7 C 8.35 g/m*3 12.7 C 14.5 km/h
172 22-12-2015 16:10:00 12.7 C 8.35 g/m*3 12.7 C 11.3 km/h
173 22-12-2015 16:15:00 12.7 C 8.35 g/m*3 12.7 C 14.5 km/h
174 22-12-2015 16:20:00 12.7 C 8.46 g/m*3 12.7 C 4.8 km/h
175 22-12-2015 16:25:00 12.6 C 8.41 g/m*3 12.6 C 4.8 km/h
Sensor: Nr:Datum:Temp:Abs-Feuchte:Windchill:Wind:
Aussen-T/F 176 22-12-2015 16:30:00 12.6 C 8.41 g/m*3 12.6 C 3.2 km/h
177 22-12-2015 16:35:00 12.6 C 8.52 g/m*3 12.6 C 6.4 km/h
178 22-12-2015 16:40:00 12.6 C 8.41 g/m*3 12.6 C 9.7 km/h
179 22-12-2015 16:45:00 12.6 C 8.41 g/m*3 12.6 C 6.4 km/h
180 22-12-2015 16:50:00 12.6 C 8.41 g/m*3 12.6 C 4.8 km/h
181 22-12-2015 16:55:00 12.6 C 8.52 g/m*3 12.6 C 11.3 km/h
182 22-12-2015 17:00:00 12.6 C 8.41 g/m*3 12.6 C 12.9 km/h
183 22-12-2015 17:05:00 12.6 C 8.41 g/m*3 12.6 C 6.4 km/h
184 22-12-2015 17:10:00 12.6 C 8.41 g/m*3 12.6 C 8.1 km/h
185 22-12-2015 17:15:00 12.6 C 8.41 g/m*3 12.6 C 9.7 km/h
186 22-12-2015 17:20:00 12.6 C 8.41 g/m*3 12.6 C 8.1 km/h
187 22-12-2015 17:25:00 12.6 C 8.41 g/m*3 12.6 C 8.1 km/h
188 22-12-2015 17:30:00 12.6 C 8.3 g/m*3 12.6 C 8.1 km/h
189 22-12-2015 17:35:00 12.5 C 8.36 g/m*3 12.5 C 11.3 km/h
190 22-12-2015 17:40:00 12.4 C 8.3 g/m*3 12.4 C 4.8 km/h
191 22-12-2015 17:45:00 12.3 C 8.25 g/m*3 12.3 C 6.4 km/h
192 22-12-2015 17:50:00 12.2 C 8.31 g/m*3 12.2 C 3.2 km/h
193 22-12-2015 17:55:00 12.2 C 8.42 g/m*3 12.2 C 3.2 km/h
194 22-12-2015 18:00:00 12.1 C 8.36 g/m*3 12.1 C 4.8 km/h
195 22-12-2015 18:05:00 11.9 C 8.37 g/m*3 11.9 C 3.2 km/h
196 22-12-2015 18:10:00 11.9 C 8.37 g/m*3 11.9 C 4.8 km/h
197 22-12-2015 18:15:00 11.9 C 8.37 g/m*3 11.9 C 4.8 km/h
198 22-12-2015 21:05:00 11 C 7.51 g/m*3 10.52 C 6.4 km/h
199 22-12-2015 21:10:00 11.1 C 7.76 g/m*3 11.1 C 3.2 km/h
200 22-12-2015 21:15:00 11.2 C 7.7 g/m*3 11.2 C 4.8 km/h
Sensor: Nr:Datum:Temp:Abs-Feuchte:Windchill:Wind:
Aussen-T/F 201 22-12-2015 21:20:00 11.1 C 7.55 g/m*3 11.1 C 3.2 km/h
202 22-12-2015 21:25:00 11.2 C 7.4 g/m*3 11.2 C 8.1 km/h
203 22-12-2015 21:30:00 11.3 C 7.34 g/m*3 11.3 C 11.3 km/h
204 22-12-2015 21:35:00 11.6 C 7.38 g/m*3 11.6 C 8.1 km/h
205 22-12-2015 21:40:00 11.8 C 7.37 g/m*3 11.8 C 14.5 km/h
206 22-12-2015 21:45:00 11.8 C 7.37 g/m*3 11.8 C 4.8 km/h
207 22-12-2015 21:50:00 11.9 C 7.41 g/m*3 11.9 C 9.7 km/h
208 22-12-2015 21:55:00 11.9 C 7.41 g/m*3 11.9 C 3.2 km/h
209 22-12-2015 22:00:00 11.9 C 7.41 g/m*3 11.9 C 12.9 km/h
210 22-12-2015 22:05:00 11.9 C 7.41 g/m*3 11.9 C 6.4 km/h
211 22-12-2015 22:10:00 11.9 C 7.41 g/m*3 11.9 C 11.3 km/h
212 22-12-2015 22:15:00 11.9 C 7.52 g/m*3 11.9 C 11.3 km/h
213 22-12-2015 22:20:00 11.9 C 7.41 g/m*3 11.9 C 11.3 km/h
214 22-12-2015 22:25:00 11.9 C 7.41 g/m*3 11.9 C 4.8 km/h
215 22-12-2015 22:30:00 11.8 C 7.47 g/m*3 11.8 C 11.3 km/h
216 22-12-2015 22:35:00 11.7 C 7.43 g/m*3 11.7 C 6.4 km/h
217 22-12-2015 22:40:00 11.7 C 7.53 g/m*3 11.7 C 8.1 km/h
218 22-12-2015 22:45:00 11.7 C 7.43 g/m*3 11.7 C 14.5 km/h
219 22-12-2015 22:50:00 11.8 C 7.47 g/m*3 11.8 C 9.7 km/h
220 22-12-2015 22:55:00 11.8 C 7.47 g/m*3 11.8 C 8.1 km/h
221 22-12-2015 23:00:00 11.8 C 7.47 g/m*3 11.8 C 12.9 km/h
222 22-12-2015 23:05:00 11.7 C 7.43 g/m*3 11.7 C 12.9 km/h
223 22-12-2015 23:10:00 11.7 C 7.43 g/m*3 11.7 C 11.3 km/h
224 22-12-2015 23:15:00 11.8 C 7.47 g/m*3 11.8 C 11.3 km/h
225 22-12-2015 23:20:00 11.7 C 7.53 g/m*3 11.7 C 11.3 km/h
Sensor: Nr:Datum:Temp:Abs-Feuchte:Windchill:Wind:
Aussen-T/F 226 22-12-2015 23:25:00 11.7 C 7.53 g/m*3 11.7 C 8.1 km/h
227 22-12-2015 23:30:00 11.7 C 7.53 g/m*3 11.7 C 16.1 km/h
228 22-12-2015 23:35:00 11.7 C 7.53 g/m*3 11.7 C 19.3 km/h
229 23-12-2015 02:45:00 10.9 C 7.56 g/m*3 10.41 C 6.4 km/h
230 23-12-2015 02:50:00 10.9 C 7.56 g/m*3 10.9 C 4.8 km/h
231 23-12-2015 02:55:00 10.9 C 7.56 g/m*3 9.76 C 9.7 km/h
232 23-12-2015 03:00:00 10.9 C 7.46 g/m*3 9.51 C 11.3 km/h
233 23-12-2015 03:05:00 10.9 C 7.46 g/m*3 9.08 C 14.5 km/h
234 23-12-2015 03:10:00 10.8 C 7.51 g/m*3 10.8 C 4.8 km/h
235 23-12-2015 03:15:00 10.7 C 7.46 g/m*3 9.81 C 8.1 km/h
236 23-12-2015 03:20:00 10.6 C 7.52 g/m*3 10.6 C 3.2 km/h
237 23-12-2015 03:25:00 10.6 C 7.52 g/m*3 9.4 C 9.7 km/h
238 23-12-2015 03:30:00 10.8 C 7.61 g/m*3 9.93 C 8.1 km/h
239 23-12-2015 03:35:00 10.8 C 7.61 g/m*3 10.8 C 4.8 km/h
240 23-12-2015 03:40:00 10.9 C 7.56 g/m*3 9.51 C 11.3 km/h
241 23-12-2015 03:45:00 11.1 C 7.55 g/m*3 11.1 C 8.1 km/h
242 23-12-2015 03:50:00 11.1 C 7.55 g/m*3 11.1 C 3.2 km/h
243 23-12-2015 03:55:00 11.1 C 7.45 g/m*3 11.1 C 9.7 km/h
244 23-12-2015 04:00:00 11.2 C 7.6 g/m*3 11.2 C 11.3 km/h
245 23-12-2015 04:05:00 11.2 C 7.5 g/m*3 11.2 C 12.9 km/h
246 23-12-2015 04:10:00 11.3 C 7.55 g/m*3 11.3 C 6.4 km/h
247 23-12-2015 04:15:00 11.2 C 7.5 g/m*3 11.2 C 4.8 km/h
248 23-12-2015 04:20:00 11.2 C 7.5 g/m*3 11.2 C 8.1 km/h
249 23-12-2015 04:25:00 11.1 C 7.45 g/m*3 11.1 C 11.3 km/h
250 23-12-2015 04:30:00 11.2 C 7.5 g/m*3 11.2 C 14.5 km/h
Sensor: Nr:Datum:Temp:Abs-Feuchte:Windchill:Wind:
Aussen-T/F 251 23-12-2015 04:35:00 11.1 C 7.55 g/m*3 11.1 C 11.3 km/h
252 23-12-2015 04:40:00 11.1 C 7.55 g/m*3 11.1 C 16.1 km/h
253 23-12-2015 04:45:00 11.1 C 7.55 g/m*3 11.1 C 6.4 km/h
254 23-12-2015 04:50:00 11.1 C 7.55 g/m*3 11.1 C 11.3 km/h
255 23-12-2015 08:05:00 10.9 C 8.45 g/m*3 8.9 C 16.1 km/h
256 23-12-2015 08:10:00 11 C 8.51 g/m*3 8.56 C 20.9 km/h
257 23-12-2015 08:15:00 11 C 8.61 g/m*3 7.94 C 29 km/h
258 23-12-2015 08:20:00 11 C 8.61 g/m*3 8.7 C 19.3 km/h
259 23-12-2015 08:25:00 10.9 C 8.55 g/m*3 8.58 C 19.3 km/h
260 23-12-2015 08:30:00 10.9 C 8.55 g/m*3 8.9 C 16.1 km/h
261 23-12-2015 08:35:00 10.9 C 8.55 g/m*3 8.73 C 17.7 km/h
262 23-12-2015 08:40:00 10.9 C 8.65 g/m*3 8.9 C 16.1 km/h
263 23-12-2015 08:45:00 10.8 C 8.6 g/m*3 9.16 C 12.9 km/h
264 23-12-2015 08:50:00 10.8 C 8.6 g/m*3 9.16 C 12.9 km/h
265 23-12-2015 08:55:00 10.8 C 8.6 g/m*3 9.16 C 12.9 km/h
266 23-12-2015 09:00:00 10.8 C 8.7 g/m*3 8.78 C 16.1 km/h
267 23-12-2015 09:05:00 10.9 C 8.75 g/m*3 9.28 C 12.9 km/h
268 23-12-2015 09:10:00 10.9 C 8.65 g/m*3 8.9 C 16.1 km/h
269 23-12-2015 09:15:00 10.9 C 8.65 g/m*3 8.9 C 16.1 km/h
270 23-12-2015 09:20:00 10.9 C 8.75 g/m*3 8.73 C 17.7 km/h
271 23-12-2015 09:25:00 11 C 8.81 g/m*3 8.86 C 17.7 km/h
272 23-12-2015 09:30:00 11 C 8.81 g/m*3 9.4 C 12.9 km/h
273 23-12-2015 09:35:00 11 C 8.81 g/m*3 8.56 C 20.9 km/h
274 23-12-2015 09:40:00 11.1 C 8.86 g/m*3 11.1 C 12.9 km/h
275 23-12-2015 09:45:00 11 C 8.81 g/m*3 9.02 C 16.1 km/h
Sensor: Nr:Datum:Temp:Abs-Feuchte:Windchill:Wind:
Aussen-T/F 276 23-12-2015 09:50:00 11 C 8.91 g/m*3 9.88 C 9.7 km/h
277 23-12-2015 09:55:00 11 C 8.91 g/m*3 9.88 C 9.7 km/h
278 23-12-2015 10:00:00 11 C 8.91 g/m*3 9.4 C 12.9 km/h
279 24-12-2015 10:10:00 8.3 C 8.26 g/m*3 8.3 C 0 km/h
280 24-12-2015 10:15:00 8.5 C 8.37 g/m*3 8.5 C 0 km/h
281 24-12-2015 10:20:00 8.6 C 8.42 g/m*3 8.6 C 0 km/h
282 24-12-2015 10:25:00 8.5 C 8.37 g/m*3 8.5 C 0 km/h
283 24-12-2015 10:30:00 8.5 C 8.28 g/m*3 8.5 C 0 km/h
284 24-12-2015 10:35:00 8.7 C 8.39 g/m*3 8.7 C 1.6 km/h
285 24-12-2015 10:40:00 8.6 C 8.34 g/m*3 8.6 C 1.6 km/h
286 24-12-2015 10:45:00 8.4 C 8.23 g/m*3 8.4 C 3.2 km/h
287 24-12-2015 10:50:00 8.4 C 8.23 g/m*3 8.4 C 1.6 km/h
288 24-12-2015 10:55:00 8.5 C 8.28 g/m*3 8.5 C 0 km/h
289 24-12-2015 11:00:00 8.7 C 8.39 g/m*3 8.7 C 0 km/h
290 24-12-2015 11:05:00 8.8 C 8.44 g/m*3 8.8 C 0 km/h
291 24-12-2015 11:10:00 9.1 C 8.61 g/m*3 9.1 C 0 km/h
292 24-12-2015 11:15:00 9.3 C 8.72 g/m*3 9.3 C 3.2 km/h
293 24-12-2015 11:20:00 9.4 C 8.77 g/m*3 9.4 C 1.6 km/h
294 24-12-2015 11:25:00 9.5 C 8.83 g/m*3 9.5 C 0 km/h
295 24-12-2015 11:30:00 9.7 C 9.03 g/m*3 9.7 C 0 km/h
296 24-12-2015 11:35:00 9.9 C 9.15 g/m*3 9.9 C 0 km/h
297 24-12-2015 11:40:00 10.1 C 9.27 g/m*3 10.1 C 1.6 km/h
298 24-12-2015 11:45:00 10.3 C 9.39 g/m*3 10.3 C 1.6 km/h
299 24-12-2015 11:50:00 10.3 C 9.39 g/m*3 10.3 C 0 km/h
300 24-12-2015 11:55:00 10.4 C 9.35 g/m*3 10.4 C 0 km/h
Sensor: Nr:Datum:Temp:Abs-Feuchte:Windchill:Wind:
Aussen-T/F 301 24-12-2015 12:00:00 10.6 C 9.57 g/m*3 10.6 C 4.8 km/h
302 24-12-2015 12:05:00 10.7 C 9.53 g/m*3 10.7 C 1.6 km/h
303 24-12-2015 12:10:00 10.8 C 9.59 g/m*3 10.8 C 0 km/h
304 24-12-2015 12:15:00 10.9 C 9.65 g/m*3 10.9 C 4.8 km/h
305 24-12-2015 12:20:00 11.1 C 9.67 g/m*3 11.1 C 3.2 km/h
306 24-12-2015 12:25:00 11.2 C 9.73 g/m*3 11.2 C 3.2 km/h
307 24-12-2015 12:30:00 11.4 C 9.65 g/m*3 11.4 C 3.2 km/h
308 24-12-2015 12:35:00 11.8 C 9.79 g/m*3 11.8 C 6.4 km/h
309 24-12-2015 12:40:00 12.1 C 9.76 g/m*3 12.1 C 4.8 km/h
310 24-12-2015 12:45:00 12.4 C 9.62 g/m*3 12.4 C 4.8 km/h
311 24-12-2015 12:50:00 12.6 C 9.62 g/m*3 12.6 C 4.8 km/h
312 24-12-2015 12:55:00 12.8 C 9.63 g/m*3 12.8 C 1.6 km/h
313 24-12-2015 13:00:00 12.9 C 9.58 g/m*3 12.9 C 14.5 km/h
314 24-12-2015 13:05:00 12.9 C 9.47 g/m*3 12.9 C 9.7 km/h
315 24-12-2015 13:10:00 12.9 C 9.47 g/m*3 12.9 C 8.1 km/h
316 24-12-2015 13:15:00 12.9 C 9.47 g/m*3 12.9 C 0 km/h
317 24-12-2015 13:20:00 12.8 C 9.41 g/m*3 12.8 C 1.6 km/h
318 24-12-2015 13:25:00 12.8 C 9.52 g/m*3 12.8 C 0 km/h
319 24-12-2015 13:30:00 12.7 C 9.35 g/m*3 12.7 C 1.6 km/h
320 24-12-2015 13:35:00 12.6 C 9.4 g/m*3 12.6 C 3.2 km/h
321 24-12-2015 13:40:00 12.6 C 9.51 g/m*3 12.6 C 1.6 km/h
322 24-12-2015 13:45:00 12.6 C 9.51 g/m*3 12.6 C 1.6 km/h
323 24-12-2015 13:50:00 12.6 C 9.51 g/m*3 12.6 C 0 km/h
324 24-12-2015 13:55:00 12.5 C 9.46 g/m*3 12.5 C 0 km/h
325 24-12-2015 14:00:00 12.4 C 9.4 g/m*3 12.4 C 4.8 km/h
Sensor: Nr:Datum:Temp:Abs-Feuchte:Windchill:Wind:
Aussen-T/F 326 24-12-2015 14:05:00 12.3 C 9.34 g/m*3 12.3 C 3.2 km/h
327 24-12-2015 14:10:00 12.2 C 9.39 g/m*3 12.2 C 0 km/h
328 24-12-2015 14:15:00 12.2 C 9.28 g/m*3 12.2 C 4.8 km/h
329 24-12-2015 14:20:00 12.1 C 9.44 g/m*3 12.1 C 0 km/h
330 24-12-2015 14:25:00 12.1 C 9.44 g/m*3 12.1 C 1.6 km/h
331 24-12-2015 14:30:00 12.1 C 9.44 g/m*3 12.1 C 0 km/h
332 24-12-2015 14:35:00 12.1 C 9.44 g/m*3 12.1 C 0 km/h
333 24-12-2015 14:40:00 12.2 C 9.39 g/m*3 12.2 C 6.4 km/h
334 24-12-2015 14:45:00 12.4 C 9.4 g/m*3 12.4 C 3.2 km/h
335 24-12-2015 14:50:00 12.6 C 9.62 g/m*3 12.6 C 1.6 km/h
336 24-12-2015 14:55:00 12.7 C 9.46 g/m*3 12.7 C 3.2 km/h
337 24-12-2015 15:00:00 12.8 C 9.41 g/m*3 12.8 C 3.2 km/h
338 24-12-2015 15:05:00 12.9 C 9.47 g/m*3 12.9 C 1.6 km/h
339 24-12-2015 15:10:00 13 C 9.41 g/m*3 13 C 3.2 km/h
340 24-12-2015 15:15:00 13.1 C 9.47 g/m*3 13.1 C 3.2 km/h
341 24-12-2015 15:20:00 13.1 C 9.47 g/m*3 13.1 C 3.2 km/h
342 24-12-2015 15:25:00 13.2 C 9.42 g/m*3 13.2 C 1.6 km/h
343 24-12-2015 15:30:00 13.2 C 9.53 g/m*3 13.2 C 8.1 km/h
344 24-12-2015 15:35:00 13.2 C 9.42 g/m*3 13.2 C 4.8 km/h
345 24-12-2015 15:40:00 13.3 C 9.36 g/m*3 13.3 C 12.9 km/h
346 24-12-2015 15:45:00 13.3 C 9.47 g/m*3 13.3 C 3.2 km/h
347 24-12-2015 15:50:00 13.3 C 9.36 g/m*3 13.3 C 12.9 km/h
348 24-12-2015 15:55:00 13.2 C 9.3 g/m*3 13.2 C 1.6 km/h
349 24-12-2015 16:00:00 13.1 C 9.36 g/m*3 13.1 C 3.2 km/h
350 24-12-2015 16:05:00 12.9 C 9.24 g/m*3 12.9 C 3.2 km/h
Sensor: Nr:Datum:Temp:Abs-Feuchte:Windchill:Wind:
Aussen-T/F 351 24-12-2015 16:10:00 12.8 C 9.3 g/m*3 12.8 C 3.2 km/h
352 24-12-2015 16:15:00 12.6 C 9.18 g/m*3 12.6 C 1.6 km/h
353 24-12-2015 16:20:00 12.3 C 9.12 g/m*3 12.3 C 1.6 km/h
354 24-12-2015 16:25:00 12.1 C 9.01 g/m*3 12.1 C 3.2 km/h
355 24-12-2015 16:30:00 11.9 C 9 g/m*3 11.9 C 3.2 km/h
356 24-12-2015 16:35:00 11.7 C 8.99 g/m*3 11.7 C 3.2 km/h
357 24-12-2015 16:40:00 11.4 C 8.83 g/m*3 11.4 C 1.6 km/h
358 24-12-2015 16:45:00 11.3 C 8.77 g/m*3 11.3 C 1.6 km/h
359 24-12-2015 16:50:00 11.1 C 8.76 g/m*3 11.1 C 1.6 km/h
360 24-12-2015 16:55:00 10.9 C 8.65 g/m*3 10.9 C 1.6 km/h
361 24-12-2015 17:00:00 10.7 C 8.55 g/m*3 10.7 C 1.6 km/h
362 24-12-2015 17:05:00 10.6 C 8.59 g/m*3 10.6 C 0 km/h
363 24-12-2015 17:10:00 10.5 C 8.53 g/m*3 10.5 C 3.2 km/h
364 24-12-2015 17:15:00 10.4 C 8.58 g/m*3 10.4 C 0 km/h
365 24-12-2015 17:20:00 10.4 C 8.58 g/m*3 10.4 C 3.2 km/h
366 24-12-2015 17:25:00 10.4 C 8.58 g/m*3 10.4 C 3.2 km/h
367 24-12-2015 17:30:00 10.4 C 8.58 g/m*3 10.4 C 1.6 km/h
368 24-12-2015 17:35:00 10.6 C 8.69 g/m*3 10.6 C 0 km/h
369 24-12-2015 17:40:00 10.7 C 8.64 g/m*3 10.7 C 3.2 km/h
370 24-12-2015 17:45:00 10.9 C 8.65 g/m*3 10.9 C 4.8 km/h
371 24-12-2015 17:50:00 11.1 C 8.76 g/m*3 11.1 C 3.2 km/h
372 24-12-2015 17:55:00 11.2 C 8.72 g/m*3 11.2 C 1.6 km/h
373 24-12-2015 18:00:00 11.2 C 8.72 g/m*3 11.2 C 1.6 km/h
374 24-12-2015 18:05:00 11.3 C 8.77 g/m*3 11.3 C 1.6 km/h
375 24-12-2015 18:10:00 11.3 C 8.77 g/m*3 11.3 C 0 km/h
Sensor: Nr:Datum:Temp:Abs-Feuchte:Windchill:Wind:
Aussen-T/F 376 24-12-2015 18:15:00 11.4 C 8.72 g/m*3 11.4 C 4.8 km/h
377 24-12-2015 18:20:00 11.6 C 8.83 g/m*3 11.6 C 1.6 km/h
378 24-12-2015 18:25:00 11.6 C 8.73 g/m*3 11.6 C 1.6 km/h
379 24-12-2015 18:30:00 11.8 C 8.84 g/m*3 11.8 C 1.6 km/h
380 24-12-2015 18:35:00 11.8 C 8.74 g/m*3 11.8 C 3.2 km/h
381 24-12-2015 18:40:00 11.7 C 8.68 g/m*3 11.7 C 0 km/h
382 24-12-2015 18:45:00 11.5 C 8.68 g/m*3 11.5 C 3.2 km/h
383 24-12-2015 18:50:00 11.3 C 8.67 g/m*3 11.3 C 1.6 km/h
384 24-12-2015 18:55:00 11.2 C 8.51 g/m*3 11.2 C 1.6 km/h
385 24-12-2015 19:00:00 11.1 C 8.56 g/m*3 11.1 C 1.6 km/h
386 24-12-2015 19:05:00 11 C 8.51 g/m*3 11 C 0 km/h
387 24-12-2015 19:10:00 10.8 C 8.4 g/m*3 10.8 C 3.2 km/h
388 24-12-2015 19:15:00 10.7 C 8.45 g/m*3 10.7 C 0 km/h
389 24-12-2015 19:20:00 10.7 C 8.45 g/m*3 10.7 C 0 km/h
390 24-12-2015 19:25:00 10.7 C 8.55 g/m*3 10.7 C 1.6 km/h
391 24-12-2015 19:30:00 10.9 C 8.55 g/m*3 10.41 C 6.4 km/h
392 24-12-2015 19:35:00 11.1 C 8.56 g/m*3 11.1 C 4.8 km/h
393 24-12-2015 19:40:00 11.3 C 8.57 g/m*3 11.3 C 3.2 km/h
394 24-12-2015 19:45:00 11.4 C 8.62 g/m*3 11.4 C 1.6 km/h
395 24-12-2015 19:50:00 11.4 C 8.62 g/m*3 11.4 C 6.4 km/h
396 24-12-2015 19:55:00 11.6 C 8.63 g/m*3 11.6 C 0 km/h
397 24-12-2015 20:00:00 11.7 C 8.79 g/m*3 11.7 C 0 km/h
398 24-12-2015 20:05:00 11.8 C 8.74 g/m*3 11.8 C 3.2 km/h
399 24-12-2015 20:10:00 11.9 C 8.68 g/m*3 11.9 C 1.6 km/h
400 24-12-2015 20:15:00 11.9 C 8.68 g/m*3 11.9 C 3.2 km/h
Sensor: Nr:Datum:Temp:Abs-Feuchte:Windchill:Wind:
Aussen-T/F 401 24-12-2015 20:20:00 11.9 C 8.58 g/m*3 11.9 C 1.6 km/h
402 24-12-2015 20:25:00 12 C 8.63 g/m*3 12 C 9.7 km/h
403 24-12-2015 20:30:00 12.1 C 8.69 g/m*3 12.1 C 3.2 km/h
404 24-12-2015 20:35:00 12.2 C 8.63 g/m*3 12.2 C 3.2 km/h
405 24-12-2015 20:40:00 12.3 C 8.69 g/m*3 12.3 C 3.2 km/h
406 24-12-2015 20:45:00 12.4 C 8.63 g/m*3 12.4 C 8.1 km/h
407 24-12-2015 20:50:00 12.6 C 8.74 g/m*3 12.6 C 3.2 km/h
408 24-12-2015 20:55:00 12.6 C 8.74 g/m*3 12.6 C 1.6 km/h
409 24-12-2015 21:00:00 12.5 C 8.69 g/m*3 12.5 C 4.8 km/h
410 24-12-2015 21:05:00 12.6 C 8.74 g/m*3 12.6 C 12.9 km/h
411 24-12-2015 21:10:00 12.6 C 8.74 g/m*3 12.6 C 8.1 km/h
412 24-12-2015 21:15:00 12.7 C 8.68 g/m*3 12.7 C 6.4 km/h
413 24-12-2015 21:20:00 12.7 C 8.68 g/m*3 12.7 C 8.1 km/h
414 24-12-2015 21:25:00 12.8 C 8.62 g/m*3 12.8 C 9.7 km/h
415 24-12-2015 21:30:00 12.9 C 8.68 g/m*3 12.9 C 6.4 km/h
416 24-12-2015 21:35:00 12.9 C 8.68 g/m*3 12.9 C 9.7 km/h
417 24-12-2015 21:40:00 12.9 C 8.68 g/m*3 12.9 C 6.4 km/h
418 24-12-2015 21:45:00 12.9 C 8.57 g/m*3 12.9 C 11.3 km/h
419 24-12-2015 21:50:00 13 C 8.62 g/m*3 13 C 9.7 km/h
420 24-12-2015 21:55:00 13.1 C 8.67 g/m*3 13.1 C 11.3 km/h
421 24-12-2015 22:00:00 13.1 C 8.67 g/m*3 13.1 C 11.3 km/h
422 24-12-2015 22:05:00 13.1 C 8.67 g/m*3 13.1 C 11.3 km/h
423 24-12-2015 22:10:00 13.1 C 8.67 g/m*3 13.1 C 9.7 km/h
424 24-12-2015 22:15:00 13.1 C 8.67 g/m*3 13.1 C 8.1 km/h
425 24-12-2015 22:20:00 13.1 C 8.56 g/m*3 13.1 C 8.1 km/h
Sensor: Nr:Datum:Temp:Abs-Feuchte:Windchill:Wind:
Aussen-T/F 426 24-12-2015 22:25:00 13.2 C 8.61 g/m*3 13.2 C 4.8 km/h
427 24-12-2015 22:30:00 13.2 C 8.61 g/m*3 13.2 C 11.3 km/h
428 24-12-2015 22:35:00 13.2 C 8.61 g/m*3 13.2 C 11.3 km/h
429 24-12-2015 22:40:00 13.2 C 8.61 g/m*3 13.2 C 4.8 km/h
430 24-12-2015 22:45:00 13.1 C 8.67 g/m*3 13.1 C 3.2 km/h
431 24-12-2015 22:50:00 13.1 C 8.56 g/m*3 13.1 C 9.7 km/h
432 24-12-2015 22:55:00 13.1 C 8.67 g/m*3 13.1 C 11.3 km/h
433 24-12-2015 23:00:00 13.2 C 8.61 g/m*3 13.2 C 19.3 km/h
434 24-12-2015 23:05:00 13.2 C 8.61 g/m*3 13.2 C 12.9 km/h
435 24-12-2015 23:10:00 13.2 C 8.61 g/m*3 13.2 C 14.5 km/h
436 24-12-2015 23:15:00 13.2 C 8.73 g/m*3 13.2 C 6.4 km/h
437 24-12-2015 23:20:00 13.2 C 8.61 g/m*3 13.2 C 17.7 km/h
438 24-12-2015 23:25:00 13.1 C 8.67 g/m*3 13.1 C 9.7 km/h
439 24-12-2015 23:30:00 13.2 C 8.73 g/m*3 13.2 C 16.1 km/h
440 24-12-2015 23:35:00 13.2 C 8.73 g/m*3 13.2 C 14.5 km/h
441 24-12-2015 23:40:00 13.1 C 8.67 g/m*3 13.1 C 16.1 km/h
442 24-12-2015 23:45:00 13.1 C 8.79 g/m*3 13.1 C 16.1 km/h
443 24-12-2015 23:50:00 13.1 C 8.67 g/m*3 13.1 C 22.5 km/h
444 24-12-2015 23:55:00 13.1 C 8.79 g/m*3 13.1 C 22.5 km/h
445 25-12-2015 00:00:00 13.1 C 8.79 g/m*3 13.1 C 17.7 km/h
446 25-12-2015 00:05:00 13.1 C 8.79 g/m*3 13.1 C 22.5 km/h
447 25-12-2015 00:10:00 13.1 C 8.9 g/m*3 13.1 C 20.9 km/h
448 25-12-2015 00:15:00 13 C 8.85 g/m*3 13 C 12.9 km/h
449 25-12-2015 00:20:00 12.9 C 8.79 g/m*3 12.9 C 16.1 km/h
450 25-12-2015 00:25:00 12.9 C 8.9 g/m*3 12.9 C 16.1 km/h
Sensor: Nr:Datum:Temp:Abs-Feuchte:Windchill:Wind:
Aussen-T/F 451 25-12-2015 00:30:00 12.8 C 8.96 g/m*3 12.8 C 17.7 km/h
452 25-12-2015 00:35:00 12.7 C 8.91 g/m*3 12.7 C 12.9 km/h
453 25-12-2015 00:40:00 12.6 C 8.96 g/m*3 12.6 C 14.5 km/h
454 25-12-2015 00:45:00 12.6 C 8.96 g/m*3 12.6 C 16.1 km/h
455 25-12-2015 00:50:00 12.6 C 8.96 g/m*3 12.6 C 17.7 km/h
456 25-12-2015 00:55:00 12.6 C 8.96 g/m*3 12.6 C 17.7 km/h
457 25-12-2015 01:00:00 12.6 C 8.96 g/m*3 12.6 C 16.1 km/h
458 25-12-2015 01:05:00 12.6 C 8.96 g/m*3 12.6 C 12.9 km/h
459 25-12-2015 01:10:00 12.6 C 8.96 g/m*3 12.6 C 27.4 km/h
460 25-12-2015 01:15:00 12.6 C 8.96 g/m*3 12.6 C 27.4 km/h
461 25-12-2015 01:20:00 12.5 C 8.91 g/m*3 12.5 C 17.7 km/h
462 25-12-2015 01:25:00 12.5 C 8.91 g/m*3 12.5 C 20.9 km/h
463 25-12-2015 01:30:00 12.4 C 8.85 g/m*3 12.4 C 19.3 km/h
464 25-12-2015 01:35:00 12.5 C 8.91 g/m*3 12.5 C 17.7 km/h
465 25-12-2015 01:40:00 12.5 C 8.91 g/m*3 12.5 C 14.5 km/h
466 25-12-2015 01:45:00 12.5 C 8.91 g/m*3 12.5 C 14.5 km/h
467 25-12-2015 01:50:00 12.4 C 8.85 g/m*3 12.4 C 14.5 km/h
468 25-12-2015 01:55:00 12.3 C 8.9 g/m*3 12.3 C 16.1 km/h
469 25-12-2015 02:00:00 12.3 C 8.9 g/m*3 12.3 C 12.9 km/h
470 25-12-2015 02:05:00 12.2 C 8.96 g/m*3 12.2 C 8.1 km/h
471 25-12-2015 02:10:00 12.2 C 8.96 g/m*3 12.2 C 8.1 km/h
472 25-12-2015 02:15:00 12.1 C 9.01 g/m*3 12.1 C 9.7 km/h
473 25-12-2015 02:20:00 11.9 C 9 g/m*3 11.9 C 4.8 km/h
474 25-12-2015 02:25:00 11.8 C 9.05 g/m*3 11.8 C 3.2 km/h
475 25-12-2015 02:30:00 11.6 C 8.94 g/m*3 11.6 C 3.2 km/h
Sensor: Nr:Datum:Temp:Abs-Feuchte:Windchill:Wind:
Aussen-T/F 476 25-12-2015 02:35:00 11.4 C 8.93 g/m*3 11.4 C 3.2 km/h
477 25-12-2015 02:40:00 11.3 C 9.08 g/m*3 11.3 C 3.2 km/h
478 25-12-2015 02:45:00 11.1 C 9.07 g/m*3 11.1 C 3.2 km/h
479 25-12-2015 02:50:00 10.9 C 8.95 g/m*3 10.9 C 4.8 km/h
480 25-12-2015 02:55:00 10.8 C 8.99 g/m*3 10.8 C 1.6 km/h
481 25-12-2015 03:00:00 10.7 C 8.94 g/m*3 10.7 C 3.2 km/h
482 25-12-2015 03:05:00 10.5 C 8.92 g/m*3 10.5 C 3.2 km/h
483 25-12-2015 03:10:00 10.4 C 8.87 g/m*3 10.4 C 3.2 km/h
484 25-12-2015 03:15:00 10.3 C 8.91 g/m*3 10.3 C 1.6 km/h
485 25-12-2015 03:20:00 10.2 C 8.85 g/m*3 10.2 C 1.6 km/h
486 25-12-2015 03:25:00 10.1 C 8.79 g/m*3 10.1 C 4.8 km/h
487 25-12-2015 03:30:00 10 C 8.74 g/m*3 10 C 3.2 km/h
488 25-12-2015 03:35:00 9.9 C 8.68 g/m*3 9.9 C 3.2 km/h
489 25-12-2015 03:40:00 9.8 C 8.72 g/m*3 9.8 C 3.2 km/h
490 25-12-2015 03:45:00 9.8 C 8.72 g/m*3 9.8 C 3.2 km/h
491 25-12-2015 03:50:00 9.8 C 8.72 g/m*3 9.8 C 3.2 km/h
492 25-12-2015 03:55:00 9.7 C 8.67 g/m*3 9.7 C 4.8 km/h
493 25-12-2015 04:00:00 9.7 C 8.67 g/m*3 9.7 C 1.6 km/h
494 25-12-2015 04:05:00 9.6 C 8.61 g/m*3 9.6 C 1.6 km/h
495 25-12-2015 04:10:00 9.5 C 8.56 g/m*3 9.5 C 1.6 km/h
496 25-12-2015 04:15:00 9.5 C 8.56 g/m*3 9.5 C 1.6 km/h
497 25-12-2015 04:20:00 9.4 C 8.5 g/m*3 9.4 C 3.2 km/h
498 25-12-2015 04:25:00 9.4 C 8.5 g/m*3 9.4 C 3.2 km/h
499 25-12-2015 04:30:00 9.3 C 8.36 g/m*3 8.16 C 8.1 km/h
500 25-12-2015 04:35:00 9.4 C 8.41 g/m*3 8.68 C 6.4 km/h
Sensor: Nr:Datum:Temp:Abs-Feuchte:Windchill:Wind:
Aussen-T/F 501 25-12-2015 04:40:00 9.4 C 8.41 g/m*3 8.68 C 6.4 km/h
502 25-12-2015 04:45:00 9.3 C 8.27 g/m*3 7.85 C 9.7 km/h
503 25-12-2015 04:50:00 9.2 C 8.13 g/m*3 8.05 C 8.1 km/h
504 25-12-2015 04:55:00 9.2 C 8.13 g/m*3 9.2 C 4.8 km/h
505 25-12-2015 05:00:00 9.2 C 8.22 g/m*3 7.46 C 11.3 km/h
506 25-12-2015 05:05:00 9.1 C 8.16 g/m*3 9.1 C 4.8 km/h
507 25-12-2015 05:10:00 9.1 C 8.16 g/m*3 9.1 C 4.8 km/h
508 25-12-2015 05:15:00 9 C 8.11 g/m*3 9 C 4.8 km/h
509 25-12-2015 05:20:00 8.9 C 8.06 g/m*3 8.1 C 6.4 km/h
510 25-12-2015 05:25:00 8.8 C 8.01 g/m*3 7.25 C 9.7 km/h
511 25-12-2015 05:30:00 8.8 C 8.01 g/m*3 8.8 C 4.8 km/h
512 25-12-2015 05:35:00 8.7 C 7.96 g/m*3 8.7 C 4.8 km/h
513 25-12-2015 05:40:00 8.7 C 7.96 g/m*3 7.87 C 6.4 km/h
514 25-12-2015 05:45:00 8.7 C 7.96 g/m*3 8.7 C 4.8 km/h
515 25-12-2015 05:50:00 8.6 C 7.99 g/m*3 7.75 C 6.4 km/h
516 25-12-2015 05:55:00 8.6 C 7.99 g/m*3 8.6 C 1.6 km/h
517 25-12-2015 06:00:00 8.6 C 7.99 g/m*3 8.6 C 0 km/h
518 25-12-2015 06:05:00 8.5 C 7.85 g/m*3 8.5 C 0 km/h
519 25-12-2015 06:10:00 8.4 C 7.8 g/m*3 8.4 C 1.6 km/h
520 25-12-2015 06:15:00 8.3 C 7.84 g/m*3 8.3 C 3.2 km/h
521 25-12-2015 06:20:00 8.3 C 7.84 g/m*3 8.3 C 3.2 km/h
522 25-12-2015 06:25:00 8.2 C 7.79 g/m*3 8.2 C 1.6 km/h
523 25-12-2015 06:30:00 8.2 C 7.79 g/m*3 8.2 C 3.2 km/h
524 25-12-2015 06:35:00 8.2 C 7.87 g/m*3 8.2 C 1.6 km/h
525 25-12-2015 06:40:00 8.1 C 7.82 g/m*3 8.1 C 0 km/h
Sensor: Nr:Datum:Temp:Abs-Feuchte:Windchill:Wind:
Aussen-T/F 526 25-12-2015 06:45:00 8.1 C 7.82 g/m*3 8.1 C 3.2 km/h
527 25-12-2015 06:50:00 8.1 C 7.82 g/m*3 8.1 C 0 km/h
528 25-12-2015 06:55:00 8.1 C 7.82 g/m*3 8.1 C 0 km/h
529 25-12-2015 07:00:00 8.2 C 7.87 g/m*3 8.2 C 0 km/h
530 25-12-2015 07:05:00 8.1 C 7.82 g/m*3 8.1 C 0 km/h
531 25-12-2015 07:10:00 8.2 C 7.96 g/m*3 8.2 C 0 km/h
532 25-12-2015 07:15:00 8.2 C 7.96 g/m*3 8.2 C 0 km/h
533 25-12-2015 07:20:00 8.2 C 7.96 g/m*3 8.2 C 0 km/h
534 25-12-2015 07:25:00 8.2 C 7.96 g/m*3 8.2 C 1.6 km/h
535 25-12-2015 07:30:00 8.2 C 7.96 g/m*3 8.2 C 0 km/h
536 25-12-2015 07:35:00 8.2 C 7.96 g/m*3 8.2 C 0 km/h
537 25-12-2015 07:40:00 8.2 C 7.96 g/m*3 8.2 C 1.6 km/h
538 25-12-2015 07:45:00 8.2 C 7.96 g/m*3 8.2 C 0 km/h
539 25-12-2015 07:50:00 8.2 C 7.96 g/m*3 8.2 C 0 km/h
540 25-12-2015 07:55:00 8.2 C 7.96 g/m*3 8.2 C 0 km/h
541 25-12-2015 08:00:00 8.2 C 7.96 g/m*3 8.2 C 3.2 km/h
542 25-12-2015 08:05:00 8.2 C 7.96 g/m*3 8.2 C 1.6 km/h
543 25-12-2015 08:10:00 8.2 C 7.96 g/m*3 8.2 C 1.6 km/h
544 25-12-2015 08:15:00 8.2 C 7.96 g/m*3 8.2 C 0 km/h
545 25-12-2015 08:20:00 8.2 C 7.96 g/m*3 8.2 C 0 km/h
546 25-12-2015 08:25:00 8.3 C 8.01 g/m*3 8.3 C 1.6 km/h
547 25-12-2015 08:30:00 8.3 C 8.01 g/m*3 8.3 C 3.2 km/h
548 25-12-2015 08:35:00 8.3 C 8.01 g/m*3 8.3 C 4.8 km/h
549 25-12-2015 08:40:00 8.3 C 8.01 g/m*3 8.3 C 0 km/h
550 25-12-2015 08:45:00 8.3 C 8.01 g/m*3 8.3 C 0 km/h
Sensor: Nr:Datum:Temp:Abs-Feuchte:Windchill:Wind:
Aussen-T/F 551 25-12-2015 08:50:00 8.3 C 8.01 g/m*3 8.3 C 0 km/h
552 25-12-2015 08:55:00 8.4 C 8.06 g/m*3 8.4 C 0 km/h
553 25-12-2015 09:00:00 8.4 C 8.06 g/m*3 8.4 C 0 km/h
554 25-12-2015 09:05:00 8.4 C 8.06 g/m*3 8.4 C 0 km/h
555 25-12-2015 09:10:00 8.5 C 8.11 g/m*3 8.5 C 1.6 km/h
556 25-12-2015 09:15:00 8.6 C 8.16 g/m*3 8.6 C 0 km/h
557 25-12-2015 09:20:00 8.6 C 8.16 g/m*3 8.6 C 0 km/h
558 25-12-2015 09:25:00 8.7 C 8.22 g/m*3 8.7 C 0 km/h
559 25-12-2015 09:30:00 8.8 C 8.27 g/m*3 8.8 C 0 km/h
560 25-12-2015 09:35:00 8.8 C 8.27 g/m*3 8.8 C 0 km/h
561 25-12-2015 09:40:00 8.8 C 8.27 g/m*3 8.8 C 1.6 km/h
562 25-12-2015 09:45:00 8.9 C 8.32 g/m*3 8.9 C 1.6 km/h
563 25-12-2015 09:50:00 9 C 8.38 g/m*3 9 C 1.6 km/h
564 25-12-2015 09:55:00 9.1 C 8.34 g/m*3 9.1 C 1.6 km/h
565 25-12-2015 10:00:00 9.2 C 8.39 g/m*3 8.05 C 8.1 km/h
566 25-12-2015 10:05:00 9.3 C 8.36 g/m*3 9.3 C 3.2 km/h
567 25-12-2015 10:10:00 9.4 C 8.41 g/m*3 9.4 C 4.8 km/h
568 25-12-2015 10:15:00 9.5 C 8.37 g/m*3 8.79 C 6.4 km/h
569 25-12-2015 10:20:00 9.7 C 8.48 g/m*3 9.02 C 6.4 km/h
570 25-12-2015 10:25:00 9.8 C 8.54 g/m*3 9.14 C 6.4 km/h
571 25-12-2015 10:30:00 9.9 C 8.59 g/m*3 9.9 C 3.2 km/h
572 25-12-2015 10:35:00 10 C 8.55 g/m*3 9.37 C 6.4 km/h
573 25-12-2015 10:40:00 10.1 C 8.51 g/m*3 10.1 C 4.8 km/h
574 25-12-2015 10:45:00 10.2 C 8.56 g/m*3 8.92 C 9.7 km/h
575 25-12-2015 10:50:00 10.3 C 8.62 g/m*3 9.04 C 9.7 km/h
Sensor: Nr:Datum:Temp:Abs-Feuchte:Windchill:Wind:
Aussen-T/F 576 25-12-2015 10:55:00 10.4 C 8.67 g/m*3 9.46 C 8.1 km/h
577 25-12-2015 11:00:00 10.5 C 8.63 g/m*3 9.28 C 9.7 km/h
578 25-12-2015 11:05:00 10.5 C 8.73 g/m*3 9.95 C 6.4 km/h
579 25-12-2015 11:10:00 10.5 C 8.63 g/m*3 10.5 C 3.2 km/h
580 25-12-2015 11:15:00 10.6 C 8.78 g/m*3 10.6 C 3.2 km/h
581 25-12-2015 11:20:00 10.6 C 8.78 g/m*3 10.6 C 1.6 km/h
582 25-12-2015 11:25:00 10.6 C 8.78 g/m*3 10.6 C 1.6 km/h
583 25-12-2015 11:30:00 10.6 C 8.78 g/m*3 10.6 C 1.6 km/h
584 25-12-2015 11:35:00 10.6 C 8.88 g/m*3 10.6 C 3.2 km/h
585 25-12-2015 11:40:00 10.7 C 8.94 g/m*3 10.7 C 3.2 km/h
586 25-12-2015 11:45:00 10.7 C 8.94 g/m*3 10.7 C 1.6 km/h
587 25-12-2015 11:50:00 10.7 C 8.94 g/m*3 10.7 C 3.2 km/h
588 25-12-2015 11:55:00 10.7 C 8.94 g/m*3 10.7 C 1.6 km/h
589 25-12-2015 12:00:00 10.7 C 8.94 g/m*3 10.7 C 1.6 km/h
590 25-12-2015 12:05:00 10.7 C 9.04 g/m*3 10.7 C 1.6 km/h
591 25-12-2015 12:10:00 10.7 C 9.04 g/m*3 10.7 C 4.8 km/h
592 25-12-2015 12:15:00 10.7 C 9.04 g/m*3 10.7 C 4.8 km/h
593 25-12-2015 12:20:00 10.8 C 9.09 g/m*3 9.93 C 8.1 km/h
594 25-12-2015 12:25:00 10.8 C 9.09 g/m*3 9.64 C 9.7 km/h
595 25-12-2015 12:30:00 10.8 C 9.09 g/m*3 9.93 C 8.1 km/h
596 25-12-2015 12:35:00 10.8 C 9.19 g/m*3 9.64 C 9.7 km/h
597 25-12-2015 12:40:00 10.9 C 9.25 g/m*3 9.28 C 12.9 km/h
598 25-12-2015 12:45:00 10.9 C 9.25 g/m*3 9.51 C 11.3 km/h
599 25-12-2015 12:50:00 11 C 9.31 g/m*3 9.88 C 9.7 km/h
600 25-12-2015 12:55:00 11.2 C 9.43 g/m*3 11.2 C 12.9 km/h
Sensor: Nr:Datum:Temp:Abs-Feuchte:Windchill:Wind:
Aussen-T/F 601 25-12-2015 13:00:00 11.3 C 9.38 g/m*3 11.3 C 12.9 km/h
602 25-12-2015 13:05:00 11.4 C 9.34 g/m*3 11.4 C 9.7 km/h
603 25-12-2015 13:10:00 11.5 C 9.3 g/m*3 11.5 C 8.1 km/h
604 25-12-2015 13:15:00 11.6 C 9.35 g/m*3 11.6 C 19.3 km/h
605 25-12-2015 13:20:00 11.7 C 9.31 g/m*3 11.7 C 9.7 km/h
606 25-12-2015 13:25:00 11.7 C 9.31 g/m*3 11.7 C 14.5 km/h
607 25-12-2015 13:30:00 11.7 C 9.31 g/m*3 11.7 C 12.9 km/h
608 25-12-2015 13:35:00 11.7 C 9.31 g/m*3 11.7 C 6.4 km/h
609 25-12-2015 13:40:00 11.7 C 9.31 g/m*3 11.7 C 6.4 km/h
610 25-12-2015 13:45:00 11.7 C 9.31 g/m*3 11.7 C 9.7 km/h
611 25-12-2015 13:50:00 11.7 C 9.31 g/m*3 11.7 C 6.4 km/h
612 25-12-2015 13:55:00 11.7 C 9.2 g/m*3 11.7 C 8.1 km/h
613 25-12-2015 14:00:00 11.7 C 9.2 g/m*3 11.7 C 11.3 km/h
614 25-12-2015 14:05:00 11.8 C 9.26 g/m*3 11.8 C 11.3 km/h
615 25-12-2015 14:10:00 11.8 C 9.26 g/m*3 11.8 C 12.9 km/h
616 25-12-2015 14:15:00 11.8 C 9.16 g/m*3 11.8 C 14.5 km/h
617 25-12-2015 14:20:00 11.8 C 9.16 g/m*3 11.8 C 16.1 km/h
618 25-12-2015 14:25:00 11.9 C 9.21 g/m*3 11.9 C 16.1 km/h
619 25-12-2015 14:30:00 11.9 C 9.21 g/m*3 11.9 C 11.3 km/h
620 25-12-2015 14:35:00 12 C 9.27 g/m*3 12 C 12.9 km/h
621 25-12-2015 14:40:00 12 C 9.27 g/m*3 12 C 12.9 km/h
622 25-12-2015 14:45:00 12.1 C 9.22 g/m*3 12.1 C 11.3 km/h
623 25-12-2015 14:50:00 12.1 C 9.22 g/m*3 12.1 C 12.9 km/h
624 25-12-2015 14:55:00 12.2 C 9.28 g/m*3 12.2 C 17.7 km/h
625 25-12-2015 15:00:00 12.3 C 9.34 g/m*3 12.3 C 14.5 km/h
Sensor: Nr:Datum:Temp:Abs-Feuchte:Windchill:Wind:
Aussen-T/F 626 25-12-2015 15:05:00 12.4 C 9.4 g/m*3 12.4 C 16.1 km/h
627 25-12-2015 15:10:00 12.4 C 9.29 g/m*3 12.4 C 14.5 km/h
628 25-12-2015 15:15:00 12.4 C 9.29 g/m*3 12.4 C 14.5 km/h
629 25-12-2015 15:20:00 12.5 C 9.35 g/m*3 12.5 C 17.7 km/h
630 25-12-2015 15:25:00 12.6 C 9.29 g/m*3 12.6 C 16.1 km/h
631 25-12-2015 15:30:00 12.6 C 9.29 g/m*3 12.6 C 16.1 km/h
632 25-12-2015 15:35:00 12.6 C 9.29 g/m*3 12.6 C 17.7 km/h
633 25-12-2015 15:40:00 12.6 C 9.29 g/m*3 12.6 C 14.5 km/h
634 25-12-2015 15:45:00 12.6 C 9.29 g/m*3 12.6 C 14.5 km/h
635 25-12-2015 15:50:00 12.6 C 9.29 g/m*3 12.6 C 17.7 km/h
636 25-12-2015 15:55:00 12.6 C 9.29 g/m*3 12.6 C 16.1 km/h
637 25-12-2015 16:00:00 12.6 C 9.18 g/m*3 12.6 C 17.7 km/h
638 25-12-2015 16:05:00 12.6 C 9.18 g/m*3 12.6 C 16.1 km/h
639 25-12-2015 16:10:00 12.6 C 9.18 g/m*3 12.6 C 16.1 km/h
640 25-12-2015 16:15:00 12.7 C 9.24 g/m*3 12.7 C 19.3 km/h
641 25-12-2015 16:20:00 12.7 C 9.24 g/m*3 12.7 C 20.9 km/h
642 25-12-2015 16:25:00 12.7 C 9.24 g/m*3 12.7 C 16.1 km/h
643 25-12-2015 16:30:00 12.7 C 9.24 g/m*3 12.7 C 16.1 km/h
644 25-12-2015 16:35:00 12.6 C 9.18 g/m*3 12.6 C 16.1 km/h
645 25-12-2015 16:40:00 12.6 C 9.18 g/m*3 12.6 C 19.3 km/h
646 25-12-2015 16:45:00 12.5 C 9.13 g/m*3 12.5 C 16.1 km/h
647 25-12-2015 16:50:00 12.6 C 9.18 g/m*3 12.6 C 17.7 km/h
648 25-12-2015 16:55:00 12.6 C 9.18 g/m*3 12.6 C 20.9 km/h
649 25-12-2015 17:00:00 12.6 C 9.18 g/m*3 12.6 C 14.5 km/h
650 25-12-2015 17:05:00 12.6 C 9.18 g/m*3 12.6 C 16.1 km/h
Sensor: Nr:Datum:Temp:Abs-Feuchte:Windchill:Wind:
Aussen-T/F 651 25-12-2015 17:10:00 12.6 C 9.18 g/m*3 12.6 C 25.7 km/h
652 25-12-2015 17:15:00 12.6 C 9.18 g/m*3 12.6 C 19.3 km/h
653 25-12-2015 17:20:00 12.6 C 9.18 g/m*3 12.6 C 17.7 km/h
654 25-12-2015 17:25:00 12.6 C 9.18 g/m*3 12.6 C 17.7 km/h
655 25-12-2015 17:30:00 12.6 C 9.18 g/m*3 12.6 C 24.1 km/h
656 25-12-2015 17:35:00 12.6 C 9.18 g/m*3 12.6 C 16.1 km/h
657 25-12-2015 17:40:00 12.6 C 9.07 g/m*3 12.6 C 17.7 km/h
658 25-12-2015 17:45:00 12.6 C 9.18 g/m*3 12.6 C 14.5 km/h
659 25-12-2015 17:50:00 12.6 C 9.18 g/m*3 12.6 C 9.7 km/h
660 25-12-2015 17:55:00 12.6 C 9.18 g/m*3 12.6 C 9.7 km/h
661 25-12-2015 18:00:00 12.6 C 9.18 g/m*3 12.6 C 9.7 km/h
662 25-12-2015 18:05:00 12.6 C 9.18 g/m*3 12.6 C 8.1 km/h
663 25-12-2015 18:10:00 12.6 C 9.18 g/m*3 12.6 C 4.8 km/h
664 25-12-2015 18:15:00 12.5 C 9.24 g/m*3 12.5 C 4.8 km/h
665 25-12-2015 18:20:00 12.4 C 9.18 g/m*3 12.4 C 3.2 km/h
666 25-12-2015 18:25:00 12.2 C 9.17 g/m*3 12.2 C 1.6 km/h
667 25-12-2015 18:30:00 12.1 C 9.12 g/m*3 12.1 C 6.4 km/h
668 25-12-2015 18:35:00 11.9 C 9 g/m*3 11.9 C 3.2 km/h
669 25-12-2015 18:40:00 11.9 C 9.11 g/m*3 11.9 C 4.8 km/h
670 25-12-2015 18:45:00 11.8 C 9.05 g/m*3 11.8 C 1.6 km/h
671 25-12-2015 18:50:00 11.8 C 9.16 g/m*3 11.8 C 1.6 km/h
672 25-12-2015 18:55:00 11.8 C 9.05 g/m*3 11.8 C 1.6 km/h
673 25-12-2015 19:00:00 11.9 C 9.11 g/m*3 11.9 C 1.6 km/h
674 25-12-2015 19:05:00 12.1 C 9.22 g/m*3 12.1 C 4.8 km/h
675 25-12-2015 19:10:00 12.2 C 9.17 g/m*3 12.2 C 6.4 km/h
Sensor: Nr:Datum:Temp:Abs-Feuchte:Windchill:Wind:
Aussen-T/F 676 25-12-2015 19:15:00 12.3 C 9.23 g/m*3 12.3 C 8.1 km/h
677 25-12-2015 19:20:00 12.4 C 9.29 g/m*3 12.4 C 6.4 km/h
678 25-12-2015 19:25:00 12.4 C 9.4 g/m*3 12.4 C 3.2 km/h
679 25-12-2015 19:30:00 12.4 C 9.29 g/m*3 12.4 C 6.4 km/h
680 25-12-2015 19:35:00 12.4 C 9.4 g/m*3 12.4 C 3.2 km/h
681 25-12-2015 19:40:00 12.4 C 9.4 g/m*3 12.4 C 3.2 km/h
682 25-12-2015 19:45:00 12.3 C 9.34 g/m*3 12.3 C 1.6 km/h
683 25-12-2015 19:50:00 12.3 C 9.34 g/m*3 12.3 C 3.2 km/h
684 25-12-2015 19:55:00 12.3 C 9.34 g/m*3 12.3 C 3.2 km/h
685 25-12-2015 20:00:00 12.3 C 9.34 g/m*3 12.3 C 1.6 km/h
686 25-12-2015 20:05:00 12.3 C 9.34 g/m*3 12.3 C 0 km/h
687 25-12-2015 20:10:00 12.3 C 9.34 g/m*3 12.3 C 4.8 km/h
688 25-12-2015 20:15:00 12.3 C 9.34 g/m*3 12.3 C 1.6 km/h
689 25-12-2015 20:20:00 12.3 C 9.34 g/m*3 12.3 C 3.2 km/h
690 25-12-2015 20:25:00 12.3 C 9.23 g/m*3 12.3 C 4.8 km/h
691 25-12-2015 20:30:00 12.3 C 9.23 g/m*3 12.3 C 4.8 km/h
692 25-12-2015 20:35:00 12.3 C 9.23 g/m*3 12.3 C 4.8 km/h
693 25-12-2015 20:40:00 12.4 C 9.18 g/m*3 12.4 C 6.4 km/h
694 25-12-2015 20:45:00 12.6 C 9.29 g/m*3 12.6 C 11.3 km/h
695 25-12-2015 20:50:00 12.7 C 9.24 g/m*3 12.7 C 11.3 km/h
696 25-12-2015 20:55:00 12.8 C 9.3 g/m*3 12.8 C 6.4 km/h
697 25-12-2015 21:00:00 12.9 C 9.35 g/m*3 12.9 C 6.4 km/h
698 25-12-2015 21:05:00 12.9 C 9.35 g/m*3 12.9 C 4.8 km/h
699 25-12-2015 21:10:00 13 C 9.41 g/m*3 13 C 8.1 km/h
700 25-12-2015 21:15:00 13 C 9.41 g/m*3 13 C 6.4 km/h
Sensor: Nr:Datum:Temp:Abs-Feuchte:Windchill:Wind:
Aussen-T/F 701 25-12-2015 21:20:00 13.1 C 9.47 g/m*3 13.1 C 4.8 km/h
702 25-12-2015 21:25:00 13.1 C 9.36 g/m*3 13.1 C 6.4 km/h
703 25-12-2015 21:30:00 13.1 C 9.47 g/m*3 13.1 C 1.6 km/h
704 25-12-2015 21:35:00 13.1 C 9.47 g/m*3 13.1 C 1.6 km/h
705 25-12-2015 21:40:00 13 C 9.41 g/m*3 13 C 1.6 km/h
706 25-12-2015 21:45:00 12.9 C 9.35 g/m*3 12.9 C 3.2 km/h
707 25-12-2015 21:50:00 12.9 C 9.35 g/m*3 12.9 C 4.8 km/h
708 25-12-2015 21:55:00 13 C 9.3 g/m*3 13 C 3.2 km/h
709 25-12-2015 22:00:00 13 C 9.41 g/m*3 13 C 4.8 km/h
710 25-12-2015 22:05:00 13 C 9.41 g/m*3 13 C 1.6 km/h
711 25-12-2015 22:10:00 12.9 C 9.35 g/m*3 12.9 C 1.6 km/h
712 25-12-2015 22:15:00 12.9 C 9.35 g/m*3 12.9 C 0 km/h
713 25-12-2015 22:20:00 12.8 C 9.41 g/m*3 12.8 C 0 km/h
714 25-12-2015 22:25:00 12.8 C 9.41 g/m*3 12.8 C 3.2 km/h
715 25-12-2015 22:30:00 12.7 C 9.35 g/m*3 12.7 C 1.6 km/h
716 25-12-2015 22:35:00 12.7 C 9.46 g/m*3 12.7 C 3.2 km/h
717 25-12-2015 22:40:00 12.8 C 9.3 g/m*3 12.8 C 3.2 km/h
718 25-12-2015 22:45:00 12.8 C 9.3 g/m*3 12.8 C 4.8 km/h
719 25-12-2015 22:50:00 12.7 C 9.24 g/m*3 12.7 C 1.6 km/h
720 25-12-2015 22:55:00 12.6 C 9.29 g/m*3 12.6 C 1.6 km/h
721 25-12-2015 23:00:00 12.4 C 9.18 g/m*3 12.4 C 1.6 km/h
722 25-12-2015 23:05:00 12.2 C 9.17 g/m*3 12.2 C 8.1 km/h
723 25-12-2015 23:10:00 12.2 C 9.06 g/m*3 12.2 C 4.8 km/h
724 25-12-2015 23:15:00 12.1 C 9.01 g/m*3 12.1 C 1.6 km/h
725 25-12-2015 23:20:00 12.1 C 9.01 g/m*3 12.1 C 1.6 km/h
Sensor: Nr:Datum:Temp:Abs-Feuchte:Windchill:Wind:
Aussen-T/F 726 25-12-2015 23:25:00 11.9 C 9 g/m*3 11.9 C 3.2 km/h
727 25-12-2015 23:30:00 11.8 C 8.95 g/m*3 11.8 C 3.2 km/h
728 25-12-2015 23:35:00 11.8 C 8.95 g/m*3 11.8 C 6.4 km/h
729 25-12-2015 23:40:00 11.9 C 8.9 g/m*3 11.9 C 8.1 km/h
730 25-12-2015 23:45:00 12.1 C 8.9 g/m*3 12.1 C 9.7 km/h
731 25-12-2015 23:50:00 12.3 C 8.9 g/m*3 12.3 C 4.8 km/h
732 25-12-2015 23:55:00 12.3 C 9.01 g/m*3 12.3 C 4.8 km/h
733 26-12-2015 00:00:00 12.3 C 8.9 g/m*3 12.3 C 6.4 km/h
734 26-12-2015 00:05:00 12.3 C 8.9 g/m*3 12.3 C 8.1 km/h
735 26-12-2015 00:10:00 12.3 C 8.9 g/m*3 12.3 C 1.6 km/h
736 26-12-2015 00:15:00 12.2 C 8.85 g/m*3 12.2 C 3.2 km/h
737 26-12-2015 00:20:00 12.1 C 8.9 g/m*3 12.1 C 8.1 km/h
738 26-12-2015 00:25:00 12 C 8.74 g/m*3 12 C 8.1 km/h
739 26-12-2015 00:30:00 12.2 C 8.85 g/m*3 12.2 C 8.1 km/h
740 26-12-2015 00:35:00 12.3 C 8.8 g/m*3 12.3 C 8.1 km/h
741 26-12-2015 00:40:00 12.3 C 8.8 g/m*3 12.3 C 8.1 km/h
742 26-12-2015 00:45:00 12.3 C 8.8 g/m*3 12.3 C 6.4 km/h
743 26-12-2015 00:50:00 12.4 C 8.74 g/m*3 12.4 C 6.4 km/h
744 26-12-2015 00:55:00 12.4 C 8.74 g/m*3 12.4 C 8.1 km/h
745 26-12-2015 01:00:00 12.4 C 8.74 g/m*3 12.4 C 8.1 km/h
746 26-12-2015 01:05:00 12.4 C 8.74 g/m*3 12.4 C 6.4 km/h
747 26-12-2015 01:10:00 12.4 C 8.85 g/m*3 12.4 C 1.6 km/h
748 26-12-2015 01:15:00 12.3 C 8.9 g/m*3 12.3 C 1.6 km/h
749 26-12-2015 01:20:00 12.1 C 8.79 g/m*3 12.1 C 3.2 km/h
750 26-12-2015 01:25:00 11.9 C 8.68 g/m*3 11.9 C 4.8 km/h
Sensor: Nr:Datum:Temp:Abs-Feuchte:Windchill:Wind:
Aussen-T/F 751 26-12-2015 01:30:00 12 C 8.74 g/m*3 12 C 3.2 km/h
752 26-12-2015 01:35:00 11.9 C 8.79 g/m*3 11.9 C 1.6 km/h
753 26-12-2015 01:40:00 11.8 C 8.74 g/m*3 11.8 C 1.6 km/h
754 26-12-2015 01:45:00 11.6 C 8.73 g/m*3 11.6 C 0 km/h
755 26-12-2015 01:50:00 11.4 C 8.72 g/m*3 11.4 C 3.2 km/h
756 26-12-2015 01:55:00 11.3 C 8.67 g/m*3 11.3 C 4.8 km/h
757 26-12-2015 02:00:00 11.1 C 8.66 g/m*3 11.1 C 6.4 km/h
758 26-12-2015 02:05:00 11.1 C 8.56 g/m*3 11.1 C 4.8 km/h
759 26-12-2015 02:10:00 11.2 C 8.62 g/m*3 11.2 C 3.2 km/h
760 26-12-2015 02:15:00 11.2 C 8.62 g/m*3 11.2 C 4.8 km/h
761 26-12-2015 02:20:00 11.2 C 8.62 g/m*3 11.2 C 0 km/h
762 26-12-2015 02:25:00 11.1 C 8.56 g/m*3 11.1 C 0 km/h
763 26-12-2015 02:30:00 11 C 8.51 g/m*3 11 C 0 km/h
764 26-12-2015 02:35:00 10.9 C 8.55 g/m*3 10.9 C 1.6 km/h
765 26-12-2015 02:40:00 10.8 C 8.5 g/m*3 10.8 C 1.6 km/h
766 26-12-2015 02:45:00 10.7 C 8.55 g/m*3 10.7 C 3.2 km/h
767 26-12-2015 02:50:00 10.7 C 8.55 g/m*3 10.7 C 4.8 km/h
768 26-12-2015 02:55:00 10.7 C 8.64 g/m*3 10.7 C 4.8 km/h
769 26-12-2015 03:00:00 10.7 C 8.64 g/m*3 10.7 C 3.2 km/h
770 26-12-2015 03:05:00 10.7 C 8.64 g/m*3 9.52 C 9.7 km/h
771 26-12-2015 03:10:00 10.8 C 8.6 g/m*3 10.8 C 4.8 km/h
772 26-12-2015 03:15:00 10.8 C 8.6 g/m*3 10.8 C 3.2 km/h
773 26-12-2015 03:20:00 10.8 C 8.6 g/m*3 10.8 C 4.8 km/h
774 26-12-2015 03:25:00 10.8 C 8.6 g/m*3 10.29 C 6.4 km/h
775 26-12-2015 03:30:00 10.8 C 8.6 g/m*3 10.8 C 1.6 km/h
Sensor: Nr:Datum:Temp:Abs-Feuchte:Windchill:Wind:
Aussen-T/F 776 26-12-2015 03:35:00 10.8 C 8.6 g/m*3 10.8 C 0 km/h
777 26-12-2015 03:40:00 10.8 C 8.6 g/m*3 10.8 C 1.6 km/h
778 26-12-2015 03:45:00 10.7 C 8.55 g/m*3 10.7 C 4.8 km/h
779 26-12-2015 03:50:00 10.7 C 8.55 g/m*3 10.7 C 1.6 km/h
780 26-12-2015 03:55:00 10.7 C 8.55 g/m*3 10.7 C 4.8 km/h
781 26-12-2015 04:00:00 10.7 C 8.55 g/m*3 10.7 C 3.2 km/h
782 26-12-2015 04:05:00 10.7 C 8.55 g/m*3 10.7 C 3.2 km/h
783 26-12-2015 04:10:00 10.7 C 8.55 g/m*3 10.7 C 1.6 km/h
784 26-12-2015 04:15:00 10.6 C 8.49 g/m*3 10.6 C 3.2 km/h
785 26-12-2015 04:20:00 10.6 C 8.59 g/m*3 10.6 C 1.6 km/h
786 26-12-2015 04:25:00 10.6 C 8.59 g/m*3 10.6 C 1.6 km/h
787 26-12-2015 04:30:00 10.6 C 8.59 g/m*3 10.6 C 4.8 km/h
788 26-12-2015 04:35:00 10.6 C 8.59 g/m*3 10.6 C 3.2 km/h
789 26-12-2015 04:40:00 10.7 C 8.64 g/m*3 10.7 C 3.2 km/h
790 26-12-2015 04:45:00 10.7 C 8.55 g/m*3 10.7 C 3.2 km/h
791 26-12-2015 04:50:00 10.7 C 8.55 g/m*3 10.7 C 1.6 km/h
792 26-12-2015 04:55:00 10.7 C 8.55 g/m*3 10.7 C 4.8 km/h
793 26-12-2015 05:00:00 10.6 C 8.49 g/m*3 10.6 C 4.8 km/h
794 26-12-2015 05:05:00 10.6 C 8.59 g/m*3 10.6 C 1.6 km/h
795 26-12-2015 05:10:00 10.5 C 8.53 g/m*3 10.5 C 3.2 km/h
796 26-12-2015 05:15:00 10.5 C 8.53 g/m*3 10.5 C 1.6 km/h
797 26-12-2015 05:20:00 10.4 C 8.48 g/m*3 10.4 C 0 km/h
798 26-12-2015 05:25:00 10.4 C 8.48 g/m*3 10.4 C 0 km/h
799 26-12-2015 05:30:00 10.3 C 8.43 g/m*3 10.3 C 1.6 km/h
800 26-12-2015 05:35:00 10.3 C 8.43 g/m*3 10.3 C 1.6 km/h
Sensor: Nr:Datum:Temp:Abs-Feuchte:Windchill:Wind:
Aussen-T/F 801 26-12-2015 05:40:00 10.2 C 8.37 g/m*3 10.2 C 3.2 km/h
802 26-12-2015 05:45:00 10.2 C 8.37 g/m*3 10.2 C 0 km/h
803 26-12-2015 05:50:00 10.2 C 8.37 g/m*3 10.2 C 1.6 km/h
804 26-12-2015 05:55:00 10.1 C 8.32 g/m*3 10.1 C 1.6 km/h
805 26-12-2015 06:00:00 10 C 8.27 g/m*3 10 C 1.6 km/h
806 26-12-2015 06:05:00 9.9 C 8.31 g/m*3 9.9 C 1.6 km/h
807 26-12-2015 06:10:00 9.9 C 8.31 g/m*3 9.9 C 0 km/h
808 26-12-2015 06:15:00 9.9 C 8.31 g/m*3 9.9 C 0 km/h
809 26-12-2015 06:20:00 9.8 C 8.26 g/m*3 9.8 C 1.6 km/h
810 26-12-2015 06:25:00 9.8 C 8.26 g/m*3 9.8 C 1.6 km/h
811 26-12-2015 06:30:00 9.8 C 8.26 g/m*3 9.8 C 3.2 km/h
812 26-12-2015 06:35:00 9.8 C 8.35 g/m*3 9.8 C 1.6 km/h
813 26-12-2015 06:40:00 9.8 C 8.35 g/m*3 9.8 C 4.8 km/h
814 26-12-2015 06:45:00 9.8 C 8.35 g/m*3 9.8 C 1.6 km/h
815 26-12-2015 06:50:00 9.8 C 8.35 g/m*3 9.8 C 1.6 km/h
816 26-12-2015 06:55:00 9.8 C 8.35 g/m*3 9.8 C 0 km/h
817 26-12-2015 07:00:00 9.8 C 8.35 g/m*3 9.8 C 1.6 km/h
818 26-12-2015 07:05:00 9.9 C 8.4 g/m*3 9.9 C 1.6 km/h
819 26-12-2015 07:10:00 9.9 C 8.4 g/m*3 9.9 C 3.2 km/h
820 26-12-2015 07:15:00 9.9 C 8.4 g/m*3 9.9 C 1.6 km/h
821 26-12-2015 07:20:00 9.9 C 8.31 g/m*3 9.9 C 1.6 km/h
822 26-12-2015 07:25:00 9.8 C 8.26 g/m*3 9.8 C 3.2 km/h
823 26-12-2015 07:30:00 9.8 C 8.26 g/m*3 9.8 C 3.2 km/h
824 26-12-2015 07:35:00 9.7 C 8.3 g/m*3 9.7 C 1.6 km/h
825 26-12-2015 07:40:00 9.7 C 8.3 g/m*3 9.7 C 1.6 km/h
Sensor: Nr:Datum:Temp:Abs-Feuchte:Windchill:Wind:
Aussen-T/F 826 26-12-2015 07:45:00 9.5 C 8.19 g/m*3 9.5 C 3.2 km/h
827 26-12-2015 07:50:00 9.4 C 8.14 g/m*3 9.4 C 3.2 km/h
828 26-12-2015 07:55:00 9.3 C 8.09 g/m*3 9.3 C 3.2 km/h
829 26-12-2015 08:00:00 9.3 C 8.09 g/m*3 9.3 C 4.8 km/h
830 26-12-2015 08:05:00 9.2 C 8.04 g/m*3 9.2 C 3.2 km/h
831 26-12-2015 08:10:00 9.2 C 8.04 g/m*3 9.2 C 3.2 km/h
832 26-12-2015 08:15:00 9.1 C 8.07 g/m*3 9.1 C 4.8 km/h
833 26-12-2015 08:20:00 9.1 C 8.07 g/m*3 9.1 C 3.2 km/h
834 26-12-2015 08:25:00 9.1 C 8.07 g/m*3 9.1 C 3.2 km/h
835 26-12-2015 08:30:00 9 C 8.02 g/m*3 9 C 3.2 km/h
836 26-12-2015 08:35:00 9 C 8.02 g/m*3 9 C 3.2 km/h
837 26-12-2015 08:40:00 8.9 C 7.97 g/m*3 8.9 C 3.2 km/h
838 26-12-2015 08:45:00 8.9 C 7.97 g/m*3 8.9 C 3.2 km/h
839 26-12-2015 08:50:00 8.9 C 7.97 g/m*3 8.9 C 3.2 km/h
840 26-12-2015 08:55:00 8.9 C 7.97 g/m*3 8.9 C 1.6 km/h
841 26-12-2015 09:00:00 8.9 C 7.97 g/m*3 8.9 C 4.8 km/h
842 26-12-2015 09:05:00 9 C 8.02 g/m*3 9 C 3.2 km/h
843 26-12-2015 09:10:00 9.2 C 8.13 g/m*3 9.2 C 4.8 km/h
844 26-12-2015 09:15:00 9.3 C 8.18 g/m*3 9.3 C 4.8 km/h
845 26-12-2015 09:20:00 9.3 C 8.09 g/m*3 8.16 C 8.1 km/h
846 26-12-2015 09:25:00 9.5 C 8.19 g/m*3 8.4 C 8.1 km/h
847 26-12-2015 09:30:00 9.7 C 8.2 g/m*3 9.02 C 6.4 km/h
848 26-12-2015 09:35:00 9.8 C 8.26 g/m*3 8.45 C 9.7 km/h
849 26-12-2015 09:40:00 9.9 C 8.22 g/m*3 8.3 C 11.3 km/h
850 26-12-2015 09:45:00 10.1 C 8.32 g/m*3 10.1 C 4.8 km/h
Sensor: Nr:Datum:Temp:Abs-Feuchte:Windchill:Wind:
Aussen-T/F 851 26-12-2015 09:50:00 10.1 C 8.23 g/m*3 9.1 C 8.1 km/h
852 26-12-2015 09:55:00 10.3 C 8.33 g/m*3 9.72 C 6.4 km/h
853 26-12-2015 10:00:00 10.3 C 8.33 g/m*3 10.3 C 3.2 km/h
854 26-12-2015 10:05:00 10.4 C 8.38 g/m*3 10.4 C 3.2 km/h
855 26-12-2015 10:10:00 10.4 C 8.38 g/m*3 10.4 C 3.2 km/h
856 26-12-2015 10:15:00 10.4 C 8.38 g/m*3 9.16 C 9.7 km/h
857 26-12-2015 10:20:00 10.4 C 8.38 g/m*3 10.4 C 4.8 km/h
858 26-12-2015 10:25:00 10.4 C 8.38 g/m*3 10.4 C 4.8 km/h
859 26-12-2015 10:30:00 10.6 C 8.39 g/m*3 9.4 C 9.7 km/h
860 26-12-2015 10:35:00 10.7 C 8.45 g/m*3 9.52 C 9.7 km/h
861 26-12-2015 10:40:00 10.7 C 8.45 g/m*3 10.7 C 4.8 km/h
862 26-12-2015 10:45:00 10.7 C 8.45 g/m*3 9.52 C 9.7 km/h
863 26-12-2015 10:50:00 10.8 C 8.5 g/m*3 10.29 C 6.4 km/h
864 26-12-2015 10:55:00 10.8 C 8.5 g/m*3 9.93 C 8.1 km/h
865 26-12-2015 11:00:00 10.8 C 8.5 g/m*3 10.29 C 6.4 km/h
866 26-12-2015 11:05:00 10.8 C 8.5 g/m*3 10.8 C 3.2 km/h
867 26-12-2015 11:10:00 10.9 C 8.55 g/m*3 10.9 C 4.8 km/h
868 26-12-2015 11:15:00 10.9 C 8.55 g/m*3 9.76 C 9.7 km/h
869 26-12-2015 11:20:00 11.1 C 8.56 g/m*3 11.1 C 9.7 km/h
870 26-12-2015 11:25:00 11.2 C 8.62 g/m*3 11.2 C 8.1 km/h
871 26-12-2015 11:30:00 11.2 C 8.62 g/m*3 11.2 C 6.4 km/h
872 26-12-2015 11:35:00 11.3 C 8.67 g/m*3 11.3 C 3.2 km/h
873 26-12-2015 11:40:00 11.3 C 8.67 g/m*3 11.3 C 3.2 km/h
874 26-12-2015 11:45:00 11.3 C 8.67 g/m*3 11.3 C 1.6 km/h
875 26-12-2015 11:50:00 11.3 C 8.67 g/m*3 11.3 C 6.4 km/h
Sensor: Nr:Datum:Temp:Abs-Feuchte:Windchill:Wind:
Aussen-T/F 876 26-12-2015 11:55:00 11.3 C 8.67 g/m*3 11.3 C 3.2 km/h
877 26-12-2015 12:00:00 11.4 C 8.72 g/m*3 11.4 C 3.2 km/h
878 26-12-2015 12:05:00 11.4 C 8.62 g/m*3 11.4 C 1.6 km/h
879 26-12-2015 12:10:00 11.4 C 8.72 g/m*3 11.4 C 1.6 km/h
880 26-12-2015 12:15:00 11.4 C 8.62 g/m*3 11.4 C 1.6 km/h
881 26-12-2015 12:20:00 11.3 C 8.57 g/m*3 11.3 C 4.8 km/h
882 26-12-2015 12:25:00 11.2 C 8.62 g/m*3 11.2 C 3.2 km/h
883 26-12-2015 12:30:00 11.1 C 8.56 g/m*3 11.1 C 1.6 km/h
884 26-12-2015 12:35:00 11.1 C 8.56 g/m*3 11.1 C 0 km/h
885 26-12-2015 12:40:00 10.9 C 8.55 g/m*3 10.9 C 0 km/h
886 26-12-2015 12:45:00 10.9 C 8.55 g/m*3 10.9 C 0 km/h
887 26-12-2015 12:50:00 10.8 C 8.5 g/m*3 10.8 C 3.2 km/h
888 26-12-2015 12:55:00 10.8 C 8.6 g/m*3 10.8 C 1.6 km/h
889 26-12-2015 13:00:00 10.8 C 8.6 g/m*3 10.8 C 3.2 km/h
890 26-12-2015 13:05:00 10.7 C 8.55 g/m*3 10.7 C 1.6 km/h
891 26-12-2015 13:10:00 10.8 C 8.7 g/m*3 10.8 C 3.2 km/h
892 26-12-2015 13:15:00 10.8 C 8.7 g/m*3 10.8 C 1.6 km/h
893 26-12-2015 13:20:00 10.8 C 8.7 g/m*3 10.8 C 1.6 km/h
894 26-12-2015 13:25:00 10.9 C 8.65 g/m*3 10.9 C 1.6 km/h
895 26-12-2015 13:30:00 11 C 8.71 g/m*3 11 C 3.2 km/h
896 26-12-2015 13:35:00 11.1 C 8.76 g/m*3 11.1 C 3.2 km/h
897 26-12-2015 13:40:00 11.1 C 8.76 g/m*3 11.1 C 3.2 km/h
898 26-12-2015 13:45:00 11.2 C 8.82 g/m*3 11.2 C 1.6 km/h
899 26-12-2015 13:50:00 11.3 C 8.87 g/m*3 11.3 C 6.4 km/h
900 26-12-2015 13:55:00 11.4 C 8.93 g/m*3 11.4 C 1.6 km/h
Sensor: Nr:Datum:Temp:Abs-Feuchte:Windchill:Wind:
Aussen-T/F 901 26-12-2015 14:00:00 11.4 C 8.83 g/m*3 11.4 C 3.2 km/h
902 26-12-2015 14:05:00 11.6 C 8.94 g/m*3 11.6 C 3.2 km/h
903 26-12-2015 14:10:00 11.8 C 9.05 g/m*3 11.8 C 6.4 km/h
904 26-12-2015 14:15:00 11.8 C 8.95 g/m*3 11.8 C 3.2 km/h
905 26-12-2015 14:20:00 11.9 C 9 g/m*3 11.9 C 4.8 km/h
906 26-12-2015 14:25:00 12 C 9.06 g/m*3 12 C 12.9 km/h
907 26-12-2015 14:30:00 12.3 C 9.12 g/m*3 12.3 C 12.9 km/h
908 26-12-2015 14:35:00 12.5 C 9.13 g/m*3 12.5 C 6.4 km/h
909 26-12-2015 14:40:00 12.7 C 9.13 g/m*3 12.7 C 9.7 km/h
910 26-12-2015 14:45:00 12.8 C 9.07 g/m*3 12.8 C 14.5 km/h
911 26-12-2015 14:50:00 13 C 9.19 g/m*3 13 C 16.1 km/h
912 26-12-2015 14:55:00 13.1 C 9.13 g/m*3 13.1 C 11.3 km/h
913 26-12-2015 15:00:00 13.1 C 9.01 g/m*3 13.1 C 16.1 km/h
914 26-12-2015 15:05:00 13.2 C 9.07 g/m*3 13.2 C 9.7 km/h
915 26-12-2015 15:10:00 13.2 C 9.07 g/m*3 13.2 C 11.3 km/h
916 26-12-2015 15:15:00 13 C 8.96 g/m*3 13 C 8.1 km/h
917 26-12-2015 15:20:00 12.9 C 9.02 g/m*3 12.9 C 14.5 km/h
918 26-12-2015 15:25:00 12.9 C 9.02 g/m*3 12.9 C 11.3 km/h
919 26-12-2015 15:30:00 12.8 C 8.96 g/m*3 12.8 C 8.1 km/h
920 26-12-2015 15:35:00 12.6 C 8.96 g/m*3 12.6 C 4.8 km/h
921 26-12-2015 15:40:00 12.3 C 8.9 g/m*3 12.3 C 3.2 km/h
922 26-12-2015 15:45:00 12.1 C 8.79 g/m*3 12.1 C 9.7 km/h
923 26-12-2015 15:50:00 11.9 C 8.79 g/m*3 11.9 C 3.2 km/h
924 26-12-2015 15:55:00 11.7 C 8.79 g/m*3 11.7 C 8.1 km/h
925 26-12-2015 16:00:00 11.6 C 8.83 g/m*3 11.6 C 6.4 km/h
Sensor: Nr:Datum:Temp:Abs-Feuchte:Windchill:Wind:
Aussen-T/F 926 26-12-2015 16:05:00 11.4 C 8.72 g/m*3 11.4 C 4.8 km/h
927 26-12-2015 16:10:00 11.4 C 8.72 g/m*3 11.4 C 11.3 km/h
928 26-12-2015 16:15:00 11.3 C 8.77 g/m*3 11.3 C 4.8 km/h
929 26-12-2015 16:20:00 11.3 C 8.77 g/m*3 11.3 C 4.8 km/h
930 26-12-2015 16:25:00 11.2 C 8.72 g/m*3 11.2 C 3.2 km/h
931 26-12-2015 16:30:00 11.2 C 8.72 g/m*3 11.2 C 6.4 km/h
932 26-12-2015 16:35:00 11.1 C 8.76 g/m*3 11.1 C 4.8 km/h
933 26-12-2015 16:40:00 11.2 C 8.82 g/m*3 11.2 C 8.1 km/h
934 26-12-2015 16:45:00 11.2 C 8.72 g/m*3 11.2 C 8.1 km/h
935 26-12-2015 16:50:00 11.2 C 8.72 g/m*3 11.2 C 8.1 km/h
936 26-12-2015 16:55:00 11.2 C 8.72 g/m*3 11.2 C 9.7 km/h
937 26-12-2015 17:00:00 11.2 C 8.72 g/m*3 11.2 C 8.1 km/h
938 26-12-2015 17:05:00 11.2 C 8.72 g/m*3 11.2 C 3.2 km/h
939 26-12-2015 17:10:00 11.1 C 8.66 g/m*3 11.1 C 11.3 km/h
940 26-12-2015 17:15:00 10.9 C 8.55 g/m*3 10.04 C 8.1 km/h
941 26-12-2015 17:20:00 10.9 C 8.65 g/m*3 10.41 C 6.4 km/h
942 26-12-2015 17:25:00 10.9 C 8.55 g/m*3 10.9 C 1.6 km/h
943 26-12-2015 17:30:00 10.8 C 8.5 g/m*3 10.8 C 1.6 km/h
944 26-12-2015 17:35:00 10.6 C 8.39 g/m*3 10.6 C 0 km/h
945 26-12-2015 17:40:00 10.3 C 8.33 g/m*3 10.3 C 0 km/h
946 26-12-2015 17:45:00 10.1 C 8.32 g/m*3 9.48 C 6.4 km/h
947 26-12-2015 17:50:00 9.9 C 8.31 g/m*3 9.9 C 3.2 km/h
948 26-12-2015 17:55:00 9.8 C 8.26 g/m*3 9.8 C 4.8 km/h
949 26-12-2015 18:00:00 9.8 C 8.35 g/m*3 9.8 C 4.8 km/h
950 26-12-2015 18:05:00 9.8 C 8.35 g/m*3 8.75 C 8.1 km/h
Sensor: Nr:Datum:Temp:Abs-Feuchte:Windchill:Wind:
Aussen-T/F 951 26-12-2015 18:10:00 10 C 8.46 g/m*3 8.99 C 8.1 km/h
952 26-12-2015 18:15:00 10.2 C 8.56 g/m*3 8.66 C 11.3 km/h
953 26-12-2015 18:20:00 10.3 C 8.52 g/m*3 9.04 C 9.7 km/h
954 26-12-2015 18:25:00 10.3 C 8.52 g/m*3 9.04 C 9.7 km/h
955 26-12-2015 18:30:00 10.4 C 8.48 g/m*3 9.83 C 6.4 km/h
956 26-12-2015 18:35:00 10.4 C 8.48 g/m*3 9.83 C 6.4 km/h
957 26-12-2015 18:40:00 10.3 C 8.43 g/m*3 10.3 C 1.6 km/h
958 26-12-2015 18:45:00 10.3 C 8.43 g/m*3 10.3 C 3.2 km/h
959 26-12-2015 18:50:00 10.2 C 8.37 g/m*3 10.2 C 1.6 km/h
960 26-12-2015 18:55:00 10.1 C 8.32 g/m*3 10.1 C 3.2 km/h
961 26-12-2015 19:00:00 10 C 8.36 g/m*3 10 C 1.6 km/h
962 26-12-2015 19:05:00 9.9 C 8.31 g/m*3 9.9 C 3.2 km/h
963 26-12-2015 19:10:00 9.8 C 8.26 g/m*3 9.8 C 0 km/h
964 26-12-2015 19:15:00 9.7 C 8.2 g/m*3 9.7 C 1.6 km/h
965 26-12-2015 19:20:00 9.7 C 8.3 g/m*3 9.7 C 3.2 km/h
966 26-12-2015 19:25:00 9.6 C 8.24 g/m*3 9.6 C 1.6 km/h
967 26-12-2015 19:30:00 9.5 C 8.19 g/m*3 9.5 C 1.6 km/h
968 26-12-2015 19:35:00 9.4 C 8.14 g/m*3 9.4 C 4.8 km/h
969 26-12-2015 19:40:00 9.3 C 8.09 g/m*3 9.3 C 3.2 km/h
970 26-12-2015 19:45:00 9.3 C 8.09 g/m*3 9.3 C 1.6 km/h
971 26-12-2015 19:50:00 9.2 C 8.13 g/m*3 9.2 C 3.2 km/h
972 26-12-2015 19:55:00 9.1 C 8.07 g/m*3 9.1 C 1.6 km/h
973 26-12-2015 20:00:00 9 C 8.02 g/m*3 9 C 3.2 km/h
974 26-12-2015 20:05:00 8.9 C 7.97 g/m*3 8.9 C 3.2 km/h
975 26-12-2015 20:10:00 8.8 C 8.01 g/m*3 8.8 C 4.8 km/h
Sensor: Nr:Datum:Temp:Abs-Feuchte:Windchill:Wind:
Aussen-T/F 976 26-12-2015 20:15:00 8.8 C 8.01 g/m*3 8.8 C 1.6 km/h
977 26-12-2015 20:20:00 8.8 C 8.01 g/m*3 8.8 C 1.6 km/h
978 26-12-2015 20:25:00 8.8 C 8.01 g/m*3 8.8 C 1.6 km/h
979 26-12-2015 20:30:00 8.8 C 8.01 g/m*3 8.8 C 1.6 km/h
980 26-12-2015 20:35:00 8.9 C 8.06 g/m*3 8.9 C 1.6 km/h
981 26-12-2015 20:40:00 8.8 C 8.01 g/m*3 8.8 C 1.6 km/h
982 26-12-2015 20:45:00 8.7 C 7.96 g/m*3 8.7 C 3.2 km/h
983 26-12-2015 20:50:00 8.7 C 7.96 g/m*3 8.7 C 1.6 km/h
984 26-12-2015 20:55:00 8.6 C 7.91 g/m*3 8.6 C 0 km/h
985 26-12-2015 21:00:00 8.6 C 7.91 g/m*3 8.6 C 1.6 km/h
986 26-12-2015 21:05:00 8.4 C 7.8 g/m*3 8.4 C 3.2 km/h
987 26-12-2015 21:10:00 8.5 C 7.94 g/m*3 8.5 C 4.8 km/h
988 26-12-2015 21:15:00 8.6 C 7.99 g/m*3 8.6 C 4.8 km/h
989 26-12-2015 21:20:00 8.7 C 8.13 g/m*3 8.7 C 1.6 km/h
990 26-12-2015 21:25:00 8.8 C 8.09 g/m*3 8.8 C 1.6 km/h
991 26-12-2015 21:30:00 8.7 C 7.96 g/m*3 8.7 C 1.6 km/h
992 26-12-2015 21:35:00 8.5 C 7.85 g/m*3 8.5 C 3.2 km/h
993 26-12-2015 21:40:00 8.4 C 7.8 g/m*3 8.4 C 3.2 km/h
994 26-12-2015 21:45:00 8.3 C 7.75 g/m*3 8.3 C 3.2 km/h
995 26-12-2015 21:50:00 8.2 C 7.79 g/m*3 8.2 C 4.8 km/h
996 26-12-2015 21:55:00 8.1 C 7.74 g/m*3 8.1 C 3.2 km/h
997 26-12-2015 22:00:00 8 C 7.69 g/m*3 8 C 3.2 km/h
998 26-12-2015 22:05:00 7.9 C 7.64 g/m*3 7.9 C 3.2 km/h
999 26-12-2015 22:10:00 7.9 C 7.72 g/m*3 7.9 C 1.6 km/h
1000 26-12-2015 22:15:00 8 C 7.77 g/m*3 8 C 3.2 km/h
Sensor: Nr:Datum:Temp:Abs-Feuchte:Windchill:Wind:
Aussen-T/F 1001 26-12-2015 22:20:00 8.1 C 7.82 g/m*3 8.1 C 0 km/h
1002 26-12-2015 22:25:00 8 C 7.77 g/m*3 8 C 3.2 km/h
1003 26-12-2015 22:30:00 8.1 C 7.82 g/m*3 7.17 C 6.4 km/h
1004 26-12-2015 22:35:00 8.4 C 8.06 g/m*3 7.52 C 6.4 km/h
1005 26-12-2015 22:40:00 8.6 C 8.16 g/m*3 7.75 C 6.4 km/h
1006 26-12-2015 22:45:00 8.7 C 8.13 g/m*3 7.46 C 8.1 km/h
1007 26-12-2015 22:50:00 8.6 C 7.99 g/m*3 8.6 C 1.6 km/h
1008 26-12-2015 22:55:00 8.5 C 7.94 g/m*3 7.22 C 8.1 km/h
1009 26-12-2015 23:00:00 8.4 C 7.89 g/m*3 8.4 C 3.2 km/h
1010 26-12-2015 23:05:00 8.2 C 7.79 g/m*3 8.2 C 4.8 km/h
1011 26-12-2015 23:10:00 8.1 C 7.74 g/m*3 8.1 C 3.2 km/h
1012 26-12-2015 23:15:00 8 C 7.69 g/m*3 6.64 C 8.1 km/h
1013 26-12-2015 23:20:00 8 C 7.77 g/m*3 8 C 4.8 km/h
1014 26-12-2015 23:25:00 7.9 C 7.64 g/m*3 7.9 C 4.8 km/h
1015 26-12-2015 23:30:00 7.9 C 7.72 g/m*3 7.9 C 4.8 km/h
1016 26-12-2015 23:35:00 7.8 C 7.59 g/m*3 7.8 C 1.6 km/h
1017 26-12-2015 23:40:00 7.7 C 7.62 g/m*3 6.28 C 8.1 km/h
1018 26-12-2015 23:45:00 7.7 C 7.62 g/m*3 7.7 C 4.8 km/h
1019 26-12-2015 23:50:00 7.8 C 7.75 g/m*3 7.8 C 3.2 km/h
1020 26-12-2015 23:55:00 7.8 C 7.67 g/m*3 6.83 C 6.4 km/h
1021 27-12-2015 00:00:00 7.9 C 7.8 g/m*3 6.18 C 9.7 km/h
1022 27-12-2015 00:05:00 7.9 C 7.8 g/m*3 6.94 C 6.4 km/h
1023 27-12-2015 00:10:00 8.1 C 7.9 g/m*3 6.42 C 9.7 km/h
1024 27-12-2015 00:15:00 8.1 C 7.9 g/m*3 8.1 C 3.2 km/h
1025 27-12-2015 00:20:00 7.9 C 7.72 g/m*3 7.9 C 1.6 km/h
Sensor: Nr:Datum:Temp:Abs-Feuchte:Windchill:Wind:
Aussen-T/F 1026 27-12-2015 00:25:00 7.7 C 7.62 g/m*3 7.7 C 4.8 km/h
1027 27-12-2015 00:30:00 7.6 C 7.57 g/m*3 7.6 C 3.2 km/h
1028 27-12-2015 00:35:00 7.4 C 7.48 g/m*3 7.4 C 3.2 km/h
1029 27-12-2015 00:40:00 7.3 C 7.43 g/m*3 7.3 C 1.6 km/h
1030 27-12-2015 00:45:00 7.2 C 7.38 g/m*3 7.2 C 1.6 km/h
1031 27-12-2015 00:50:00 7.1 C 7.33 g/m*3 7.1 C 0 km/h
1032 27-12-2015 00:55:00 7.1 C 7.33 g/m*3 7.1 C 0 km/h
1033 27-12-2015 01:00:00 6.9 C 7.24 g/m*3 6.9 C 0 km/h
1034 27-12-2015 01:05:00 6.9 C 7.24 g/m*3 6.9 C 0 km/h
1035 27-12-2015 01:10:00 6.8 C 7.27 g/m*3 6.8 C 0 km/h
1036 27-12-2015 01:15:00 6.8 C 7.19 g/m*3 6.8 C 0 km/h
1037 27-12-2015 01:20:00 6.7 C 7.22 g/m*3 6.7 C 0 km/h
1038 27-12-2015 01:25:00 6.8 C 7.27 g/m*3 6.8 C 3.2 km/h
1039 27-12-2015 01:30:00 6.8 C 7.27 g/m*3 6.8 C 0 km/h
1040 27-12-2015 01:35:00 6.8 C 7.27 g/m*3 6.8 C 3.2 km/h
1041 27-12-2015 01:40:00 6.7 C 7.22 g/m*3 6.7 C 3.2 km/h
1042 27-12-2015 01:45:00 6.6 C 7.17 g/m*3 6.6 C 3.2 km/h
1043 27-12-2015 01:50:00 6.6 C 7.17 g/m*3 6.6 C 3.2 km/h
1044 27-12-2015 01:55:00 6.5 C 7.12 g/m*3 6.5 C 3.2 km/h
1045 27-12-2015 02:00:00 6.4 C 7.08 g/m*3 6.4 C 3.2 km/h
1046 27-12-2015 02:05:00 6.4 C 7.08 g/m*3 6.4 C 3.2 km/h
1047 27-12-2015 02:10:00 6.4 C 7.08 g/m*3 6.4 C 3.2 km/h
1048 27-12-2015 02:15:00 6.5 C 7.12 g/m*3 6.5 C 3.2 km/h
1049 27-12-2015 02:20:00 6.6 C 7.17 g/m*3 6.6 C 3.2 km/h
1050 27-12-2015 02:25:00 6.6 C 7.17 g/m*3 6.6 C 1.6 km/h
Sensor: Nr:Datum:Temp:Abs-Feuchte:Windchill:Wind:
Aussen-T/F 1051 27-12-2015 02:30:00 6.5 C 7.12 g/m*3 6.5 C 3.2 km/h
1052 27-12-2015 02:35:00 6.5 C 7.12 g/m*3 6.5 C 4.8 km/h
1053 27-12-2015 02:40:00 6.6 C 7.25 g/m*3 6.6 C 3.2 km/h
1054 27-12-2015 02:45:00 6.6 C 7.25 g/m*3 6.6 C 1.6 km/h
1055 27-12-2015 02:50:00 6.7 C 7.29 g/m*3 6.7 C 4.8 km/h
1056 27-12-2015 02:55:00 6.7 C 7.29 g/m*3 6.7 C 3.2 km/h
1057 27-12-2015 03:00:00 6.7 C 7.29 g/m*3 6.7 C 1.6 km/h
1058 27-12-2015 03:05:00 6.6 C 7.17 g/m*3 6.6 C 3.2 km/h
1059 27-12-2015 03:10:00 6.4 C 7.08 g/m*3 6.4 C 1.6 km/h
1060 27-12-2015 03:15:00 6.4 C 7.08 g/m*3 6.4 C 3.2 km/h
1061 27-12-2015 03:20:00 6.3 C 7.03 g/m*3 6.3 C 3.2 km/h
1062 27-12-2015 03:25:00 6.3 C 7.03 g/m*3 6.3 C 3.2 km/h
1063 27-12-2015 03:30:00 6.2 C 6.99 g/m*3 6.2 C 4.8 km/h
1064 27-12-2015 03:35:00 6.2 C 6.99 g/m*3 6.2 C 3.2 km/h
1065 27-12-2015 03:40:00 6.1 C 6.94 g/m*3 6.1 C 4.8 km/h
1066 27-12-2015 03:45:00 6.1 C 6.94 g/m*3 6.1 C 4.8 km/h
1067 27-12-2015 03:50:00 6.1 C 6.94 g/m*3 6.1 C 4.8 km/h
1068 27-12-2015 03:55:00 5.9 C 6.85 g/m*3 5.9 C 4.8 km/h
1069 27-12-2015 04:00:00 5.9 C 6.85 g/m*3 5.9 C 1.6 km/h
1070 27-12-2015 04:05:00 5.8 C 6.81 g/m*3 5.8 C 1.6 km/h
1071 27-12-2015 04:10:00 5.8 C 6.81 g/m*3 5.8 C 3.2 km/h
1072 27-12-2015 04:15:00 5.8 C 6.81 g/m*3 5.8 C 1.6 km/h
1073 27-12-2015 04:20:00 5.8 C 6.88 g/m*3 5.8 C 4.8 km/h
1074 27-12-2015 04:25:00 5.8 C 6.88 g/m*3 5.8 C 3.2 km/h
1075 27-12-2015 04:30:00 5.8 C 6.88 g/m*3 5.8 C 0 km/h
Sensor: Nr:Datum:Temp:Abs-Feuchte:Windchill:Wind:
Aussen-T/F 1076 27-12-2015 04:35:00 5.8 C 6.88 g/m*3 5.8 C 3.2 km/h
1077 27-12-2015 04:40:00 5.8 C 6.88 g/m*3 5.8 C 3.2 km/h
1078 27-12-2015 04:45:00 5.8 C 6.88 g/m*3 5.8 C 0 km/h
1079 27-12-2015 04:50:00 5.8 C 6.88 g/m*3 5.8 C 1.6 km/h
1080 27-12-2015 04:55:00 5.8 C 6.88 g/m*3 5.8 C 3.2 km/h
1081 27-12-2015 05:00:00 5.9 C 6.92 g/m*3 5.9 C 1.6 km/h
1082 27-12-2015 05:05:00 5.9 C 6.92 g/m*3 5.9 C 0 km/h
1083 27-12-2015 05:10:00 5.8 C 6.88 g/m*3 5.8 C 0 km/h
1084 27-12-2015 05:15:00 5.8 C 6.88 g/m*3 5.8 C 1.6 km/h
1085 27-12-2015 05:20:00 5.8 C 6.88 g/m*3 5.8 C 3.2 km/h
1086 27-12-2015 05:25:00 5.8 C 6.88 g/m*3 5.8 C 1.6 km/h
1087 27-12-2015 05:30:00 5.8 C 6.88 g/m*3 5.8 C 1.6 km/h
1088 27-12-2015 05:35:00 5.8 C 6.88 g/m*3 5.8 C 0 km/h
1089 27-12-2015 05:40:00 5.8 C 6.88 g/m*3 5.8 C 3.2 km/h
1090 27-12-2015 05:45:00 5.7 C 6.83 g/m*3 5.7 C 0 km/h
1091 27-12-2015 05:50:00 5.6 C 6.72 g/m*3 5.6 C 0 km/h
1092 27-12-2015 05:55:00 5.3 C 6.65 g/m*3 5.3 C 0 km/h
1093 27-12-2015 06:00:00 5.3 C 6.58 g/m*3 5.3 C 0 km/h
1094 27-12-2015 06:05:00 5.2 C 6.61 g/m*3 5.2 C 0 km/h
1095 27-12-2015 06:10:00 5.1 C 6.57 g/m*3 5.1 C 0 km/h
1096 27-12-2015 06:15:00 5.1 C 6.57 g/m*3 5.1 C 0 km/h
1097 27-12-2015 06:20:00 5.1 C 6.57 g/m*3 5.1 C 1.6 km/h
1098 27-12-2015 06:25:00 5.2 C 6.61 g/m*3 5.2 C 1.6 km/h
1099 27-12-2015 06:30:00 5.4 C 6.7 g/m*3 5.4 C 3.2 km/h
1100 27-12-2015 06:35:00 5.6 C 6.79 g/m*3 5.6 C 4.8 km/h
Sensor: Nr:Datum:Temp:Abs-Feuchte:Windchill:Wind:
Aussen-T/F 1101 27-12-2015 06:40:00 5.6 C 6.79 g/m*3 5.6 C 1.6 km/h
1102 27-12-2015 06:45:00 5.6 C 6.79 g/m*3 5.6 C 3.2 km/h
1103 27-12-2015 06:50:00 5.7 C 6.83 g/m*3 5.7 C 1.6 km/h
1104 27-12-2015 06:55:00 5.7 C 6.83 g/m*3 5.7 C 1.6 km/h
1105 27-12-2015 07:00:00 5.7 C 6.83 g/m*3 5.7 C 1.6 km/h
1106 27-12-2015 07:05:00 5.7 C 6.83 g/m*3 5.7 C 3.2 km/h
1107 27-12-2015 07:10:00 5.8 C 6.88 g/m*3 5.8 C 1.6 km/h
1108 27-12-2015 07:15:00 5.8 C 6.88 g/m*3 5.8 C 1.6 km/h
1109 27-12-2015 07:20:00 5.9 C 6.92 g/m*3 5.9 C 3.2 km/h
1110 27-12-2015 07:25:00 6 C 7.04 g/m*3 6 C 1.6 km/h
1111 27-12-2015 07:30:00 6.1 C 7.09 g/m*3 6.1 C 3.2 km/h
1112 27-12-2015 07:35:00 6.1 C 7.09 g/m*3 6.1 C 4.8 km/h
1113 27-12-2015 07:40:00 6.2 C 7.13 g/m*3 6.2 C 1.6 km/h
1114 27-12-2015 07:45:00 6.2 C 7.06 g/m*3 6.2 C 1.6 km/h
1115 27-12-2015 07:50:00 6.2 C 7.06 g/m*3 6.2 C 3.2 km/h
1116 27-12-2015 07:55:00 6.2 C 7.06 g/m*3 6.2 C 4.8 km/h
1117 27-12-2015 08:00:00 6.2 C 7.06 g/m*3 4.98 C 6.4 km/h
1118 27-12-2015 08:05:00 6.2 C 7.06 g/m*3 6.2 C 1.6 km/h
1119 27-12-2015 08:10:00 6.3 C 7.11 g/m*3 6.3 C 3.2 km/h
1120 27-12-2015 08:15:00 6.3 C 7.11 g/m*3 6.3 C 4.8 km/h
1121 27-12-2015 08:20:00 6.3 C 7.11 g/m*3 5.1 C 6.4 km/h
1122 27-12-2015 08:25:00 6.4 C 7.15 g/m*3 4.75 C 8.1 km/h
1123 27-12-2015 08:30:00 6.4 C 7.15 g/m*3 4.08 C 11.3 km/h
1124 27-12-2015 08:35:00 6.6 C 7.25 g/m*3 4.32 C 11.3 km/h
1125 27-12-2015 08:40:00 6.7 C 7.29 g/m*3 5.11 C 8.1 km/h
Sensor: Nr:Datum:Temp:Abs-Feuchte:Windchill:Wind:
Aussen-T/F 1126 27-12-2015 08:45:00 6.7 C 7.29 g/m*3 4.75 C 9.7 km/h
1127 27-12-2015 08:50:00 6.8 C 7.34 g/m*3 4.87 C 9.7 km/h
1128 27-12-2015 08:55:00 6.9 C 7.39 g/m*3 5.34 C 8.1 km/h
1129 27-12-2015 09:00:00 7 C 7.44 g/m*3 5.46 C 8.1 km/h
1130 27-12-2015 09:05:00 7.1 C 7.49 g/m*3 7.1 C 4.8 km/h
1131 27-12-2015 09:10:00 7.3 C 7.58 g/m*3 5.47 C 9.7 km/h
1132 27-12-2015 09:15:00 7.4 C 7.55 g/m*3 5.58 C 9.7 km/h
1133 27-12-2015 09:20:00 7.6 C 7.65 g/m*3 5.02 C 14.5 km/h
1134 27-12-2015 09:25:00 7.7 C 7.62 g/m*3 6.71 C 6.4 km/h
1135 27-12-2015 09:30:00 7.8 C 7.67 g/m*3 6.06 C 9.7 km/h
1136 27-12-2015 09:35:00 7.8 C 7.67 g/m*3 5.77 C 11.3 km/h
1137 27-12-2015 09:40:00 7.9 C 7.64 g/m*3 6.94 C 6.4 km/h
1138 27-12-2015 09:45:00 7.9 C 7.64 g/m*3 6.52 C 8.1 km/h
1139 27-12-2015 09:50:00 8 C 7.69 g/m*3 6.3 C 9.7 km/h
1140 27-12-2015 09:55:00 8.1 C 7.66 g/m*3 5.87 C 12.9 km/h
1141 27-12-2015 10:00:00 8.2 C 7.7 g/m*3 6.25 C 11.3 km/h
1142 27-12-2015 10:05:00 8.2 C 7.7 g/m*3 7.29 C 6.4 km/h
1143 27-12-2015 10:10:00 8.2 C 7.7 g/m*3 8.2 C 4.8 km/h
1144 27-12-2015 10:15:00 8.3 C 7.75 g/m*3 7.41 C 6.4 km/h
1145 27-12-2015 10:20:00 8.3 C 7.75 g/m*3 8.3 C 0 km/h
1146 27-12-2015 10:25:00 8.3 C 7.75 g/m*3 7.41 C 6.4 km/h
1147 27-12-2015 10:30:00 8.3 C 7.75 g/m*3 8.3 C 3.2 km/h
1148 27-12-2015 10:35:00 8.3 C 7.75 g/m*3 8.3 C 3.2 km/h
1149 27-12-2015 10:40:00 8.3 C 7.75 g/m*3 8.3 C 1.6 km/h
1150 27-12-2015 10:45:00 8.4 C 7.8 g/m*3 8.4 C 4.8 km/h
Sensor: Nr:Datum:Temp:Abs-Feuchte:Windchill:Wind:
Aussen-T/F 1151 27-12-2015 10:50:00 8.4 C 7.8 g/m*3 8.4 C 4.8 km/h
1152 27-12-2015 10:55:00 8.5 C 7.85 g/m*3 7.64 C 6.4 km/h
1153 27-12-2015 11:00:00 8.6 C 7.91 g/m*3 8.6 C 4.8 km/h
1154 27-12-2015 11:05:00 8.7 C 7.96 g/m*3 7.13 C 9.7 km/h
1155 27-12-2015 11:10:00 8.8 C 7.92 g/m*3 7.25 C 9.7 km/h
1156 27-12-2015 11:15:00 8.9 C 7.97 g/m*3 7.69 C 8.1 km/h
1157 27-12-2015 11:20:00 8.9 C 7.97 g/m*3 7.37 C 9.7 km/h
1158 27-12-2015 11:25:00 9.1 C 8.07 g/m*3 7.33 C 11.3 km/h
1159 27-12-2015 11:30:00 9.3 C 8.09 g/m*3 9.3 C 4.8 km/h
1160 27-12-2015 11:35:00 9.3 C 8.09 g/m*3 9.3 C 4.8 km/h
1161 27-12-2015 11:40:00 9.5 C 8.1 g/m*3 9.5 C 4.8 km/h
1162 27-12-2015 11:45:00 9.6 C 8.15 g/m*3 9.6 C 3.2 km/h
1163 27-12-2015 11:50:00 9.7 C 8.2 g/m*3 9.7 C 3.2 km/h
1164 27-12-2015 11:55:00 9.8 C 8.26 g/m*3 9.14 C 6.4 km/h
1165 27-12-2015 12:00:00 9.9 C 8.22 g/m*3 8.3 C 11.3 km/h
1166 27-12-2015 12:05:00 10.1 C 8.32 g/m*3 8.31 C 12.9 km/h
1167 27-12-2015 12:10:00 10.3 C 8.33 g/m*3 8.78 C 11.3 km/h
1168 27-12-2015 12:15:00 10.4 C 8.38 g/m*3 8.67 C 12.9 km/h
1169 27-12-2015 12:20:00 10.5 C 8.34 g/m*3 9.28 C 9.7 km/h
1170 27-12-2015 12:25:00 10.6 C 8.39 g/m*3 9.4 C 9.7 km/h
1171 27-12-2015 12:30:00 10.6 C 8.39 g/m*3 10.06 C 6.4 km/h
1172 27-12-2015 12:35:00 10.7 C 8.45 g/m*3 8.84 C 14.5 km/h
1173 27-12-2015 12:40:00 10.8 C 8.4 g/m*3 9.16 C 12.9 km/h
1174 27-12-2015 12:45:00 10.8 C 8.4 g/m*3 9.93 C 8.1 km/h
1175 27-12-2015 12:50:00 10.8 C 8.4 g/m*3 9.93 C 8.1 km/h
Sensor: Nr:Datum:Temp:Abs-Feuchte:Windchill:Wind:
Aussen-T/F 1176 27-12-2015 12:55:00 10.9 C 8.45 g/m*3 9.76 C 9.7 km/h
1177 27-12-2015 13:00:00 10.9 C 8.45 g/m*3 10.04 C 8.1 km/h
1178 27-12-2015 13:05:00 10.9 C 8.45 g/m*3 10.04 C 8.1 km/h
1179 27-12-2015 13:10:00 10.8 C 8.4 g/m*3 9.38 C 11.3 km/h
1180 27-12-2015 13:15:00 10.9 C 8.45 g/m*3 9.76 C 9.7 km/h
1181 27-12-2015 13:20:00 10.9 C 8.45 g/m*3 10.04 C 8.1 km/h
1182 27-12-2015 13:25:00 10.9 C 8.45 g/m*3 10.9 C 4.8 km/h
1183 27-12-2015 13:30:00 10.9 C 8.45 g/m*3 10.41 C 6.4 km/h
1184 27-12-2015 13:35:00 10.9 C 8.45 g/m*3 10.41 C 6.4 km/h
1185 27-12-2015 13:40:00 10.9 C 8.55 g/m*3 10.9 C 3.2 km/h
1186 27-12-2015 13:45:00 10.9 C 8.55 g/m*3 10.9 C 3.2 km/h
1187 27-12-2015 13:50:00 10.8 C 8.5 g/m*3 10.8 C 3.2 km/h
1188 27-12-2015 13:55:00 10.8 C 8.5 g/m*3 10.8 C 0 km/h
1189 27-12-2015 14:00:00 10.8 C 8.6 g/m*3 10.8 C 0 km/h
1190 27-12-2015 14:05:00 10.8 C 8.6 g/m*3 10.8 C 3.2 km/h
1191 27-12-2015 14:10:00 10.7 C 8.55 g/m*3 10.7 C 1.6 km/h
1192 27-12-2015 14:15:00 10.7 C 8.55 g/m*3 10.18 C 6.4 km/h
1193 27-12-2015 14:20:00 10.7 C 8.55 g/m*3 9.81 C 8.1 km/h
1194 27-12-2015 14:25:00 10.7 C 8.55 g/m*3 10.18 C 6.4 km/h
1195 27-12-2015 14:30:00 10.6 C 8.49 g/m*3 10.6 C 4.8 km/h
1196 27-12-2015 14:35:00 10.6 C 8.49 g/m*3 10.6 C 1.6 km/h
1197 27-12-2015 14:40:00 10.6 C 8.49 g/m*3 10.6 C 3.2 km/h
1198 27-12-2015 14:45:00 10.6 C 8.49 g/m*3 10.6 C 1.6 km/h
1199 27-12-2015 14:50:00 10.6 C 8.49 g/m*3 10.6 C 1.6 km/h
1200 27-12-2015 14:55:00 10.5 C 8.53 g/m*3 10.5 C 0 km/h
Sensor: Nr:Datum:Temp:Abs-Feuchte:Windchill:Wind:
Aussen-T/F 1201 27-12-2015 15:00:00 10.4 C 8.38 g/m*3 10.4 C 3.2 km/h
1202 27-12-2015 15:05:00 10.4 C 8.48 g/m*3 10.4 C 4.8 km/h
1203 27-12-2015 15:10:00 10.4 C 8.38 g/m*3 10.4 C 3.2 km/h
1204 27-12-2015 15:15:00 10.3 C 8.43 g/m*3 9.72 C 6.4 km/h
1205 27-12-2015 15:20:00 10.3 C 8.43 g/m*3 10.3 C 1.6 km/h
1206 27-12-2015 15:25:00 10.2 C 8.37 g/m*3 10.2 C 3.2 km/h
1207 27-12-2015 15:30:00 10.2 C 8.37 g/m*3 10.2 C 3.2 km/h
1208 27-12-2015 15:35:00 10.1 C 8.42 g/m*3 10.1 C 3.2 km/h
1209 27-12-2015 15:40:00 10 C 8.36 g/m*3 10 C 3.2 km/h
1210 27-12-2015 15:45:00 10 C 8.36 g/m*3 10 C 3.2 km/h
1211 27-12-2015 15:50:00 9.9 C 8.31 g/m*3 9.9 C 3.2 km/h
1212 27-12-2015 15:55:00 9.8 C 8.26 g/m*3 9.8 C 3.2 km/h
1213 27-12-2015 16:00:00 9.7 C 8.2 g/m*3 9.7 C 3.2 km/h
1214 27-12-2015 16:05:00 9.7 C 8.2 g/m*3 9.7 C 3.2 km/h
1215 27-12-2015 16:10:00 9.6 C 8.15 g/m*3 9.6 C 1.6 km/h
1216 27-12-2015 16:15:00 9.4 C 8.14 g/m*3 9.4 C 1.6 km/h
1217 27-12-2015 16:20:00 9.4 C 8.14 g/m*3 9.4 C 3.2 km/h
1218 27-12-2015 16:25:00 9.3 C 8.09 g/m*3 9.3 C 3.2 km/h
1219 27-12-2015 16:30:00 9.2 C 8.04 g/m*3 9.2 C 3.2 km/h
1220 27-12-2015 16:35:00 9.1 C 8.07 g/m*3 9.1 C 3.2 km/h
1221 27-12-2015 16:40:00 9.1 C 8.07 g/m*3 9.1 C 3.2 km/h
1222 27-12-2015 16:45:00 9 C 8.02 g/m*3 9 C 3.2 km/h
1223 27-12-2015 16:50:00 8.9 C 7.97 g/m*3 8.9 C 3.2 km/h
1224 27-12-2015 16:55:00 8.9 C 7.97 g/m*3 8.9 C 3.2 km/h
1225 27-12-2015 17:00:00 8.8 C 7.92 g/m*3 8.8 C 3.2 km/h
Sensor: Nr:Datum:Temp:Abs-Feuchte:Windchill:Wind:
Aussen-T/F 1226 27-12-2015 17:05:00 8.8 C 7.92 g/m*3 8.8 C 4.8 km/h
1227 27-12-2015 17:10:00 8.7 C 7.87 g/m*3 8.7 C 4.8 km/h
1228 27-12-2015 17:15:00 8.7 C 7.96 g/m*3 8.7 C 4.8 km/h
1229 27-12-2015 17:20:00 8.7 C 7.96 g/m*3 8.7 C 4.8 km/h
1230 27-12-2015 17:25:00 8.7 C 7.87 g/m*3 8.7 C 4.8 km/h
1231 27-12-2015 17:30:00 8.7 C 7.87 g/m*3 8.7 C 3.2 km/h
1232 27-12-2015 17:35:00 8.5 C 7.77 g/m*3 8.5 C 1.6 km/h
1233 27-12-2015 17:40:00 8.4 C 7.72 g/m*3 8.4 C 1.6 km/h
1234 27-12-2015 17:45:00 8.3 C 7.75 g/m*3 8.3 C 3.2 km/h
1235 27-12-2015 17:50:00 8.2 C 7.7 g/m*3 8.2 C 3.2 km/h
1236 27-12-2015 17:55:00 8.1 C 7.66 g/m*3 8.1 C 3.2 km/h
1237 27-12-2015 18:00:00 8.1 C 7.66 g/m*3 8.1 C 3.2 km/h
1238 27-12-2015 18:05:00 7.9 C 7.56 g/m*3 7.9 C 3.2 km/h
1239 27-12-2015 18:10:00 7.9 C 7.64 g/m*3 7.9 C 3.2 km/h
1240 27-12-2015 18:15:00 7.9 C 7.64 g/m*3 7.9 C 3.2 km/h
1241 27-12-2015 18:20:00 7.9 C 7.64 g/m*3 7.9 C 1.6 km/h
1242 27-12-2015 18:25:00 7.9 C 7.64 g/m*3 7.9 C 3.2 km/h
1243 27-12-2015 18:30:00 7.9 C 7.72 g/m*3 7.9 C 3.2 km/h
1244 27-12-2015 18:35:00 8 C 7.77 g/m*3 8 C 3.2 km/h
1245 27-12-2015 18:40:00 8.2 C 7.87 g/m*3 8.2 C 4.8 km/h
1246 27-12-2015 18:45:00 8.3 C 7.84 g/m*3 8.3 C 3.2 km/h
1247 27-12-2015 18:50:00 8.3 C 7.84 g/m*3 8.3 C 4.8 km/h
1248 27-12-2015 18:55:00 8.2 C 7.79 g/m*3 8.2 C 3.2 km/h
1249 27-12-2015 19:00:00 8.2 C 7.7 g/m*3 8.2 C 1.6 km/h
1250 27-12-2015 19:05:00 8.1 C 7.66 g/m*3 8.1 C 3.2 km/h
Sensor: Nr:Datum:Temp:Abs-Feuchte:Windchill:Wind:
Aussen-T/F 1251 27-12-2015 19:10:00 8.1 C 7.66 g/m*3 8.1 C 1.6 km/h
1252 27-12-2015 19:15:00 8 C 7.69 g/m*3 8 C 3.2 km/h
1253 27-12-2015 19:20:00 8.1 C 7.74 g/m*3 8.1 C 4.8 km/h
1254 27-12-2015 19:25:00 8.1 C 7.74 g/m*3 8.1 C 3.2 km/h
1255 27-12-2015 19:30:00 8.2 C 7.79 g/m*3 8.2 C 4.8 km/h
1256 27-12-2015 19:35:00 8.2 C 7.79 g/m*3 8.2 C 4.8 km/h
1257 27-12-2015 19:40:00 8.2 C 7.79 g/m*3 8.2 C 3.2 km/h
1258 27-12-2015 19:45:00 8.2 C 7.79 g/m*3 8.2 C 1.6 km/h
1259 27-12-2015 19:50:00 8.2 C 7.79 g/m*3 8.2 C 3.2 km/h
1260 27-12-2015 19:55:00 8.1 C 7.66 g/m*3 8.1 C 4.8 km/h
1261 27-12-2015 20:00:00 7.9 C 7.56 g/m*3 7.9 C 3.2 km/h
1262 27-12-2015 20:05:00 7.7 C 7.38 g/m*3 7.7 C 0 km/h
1263 27-12-2015 20:10:00 7.4 C 7.24 g/m*3 7.4 C 0 km/h
1264 27-12-2015 20:15:00 7.3 C 7.27 g/m*3 7.3 C 1.6 km/h
1265 27-12-2015 20:20:00 7.2 C 7.22 g/m*3 7.2 C 1.6 km/h
1266 27-12-2015 20:25:00 7 C 7.13 g/m*3 7 C 0 km/h
1267 27-12-2015 20:30:00 6.9 C 7.16 g/m*3 6.9 C 1.6 km/h
1268 27-12-2015 20:35:00 6.8 C 7.11 g/m*3 6.8 C 0 km/h
1269 27-12-2015 20:40:00 6.7 C 7.07 g/m*3 6.7 C 1.6 km/h
1270 27-12-2015 20:45:00 6.7 C 7.14 g/m*3 6.7 C 1.6 km/h
1271 27-12-2015 20:50:00 6.8 C 7.19 g/m*3 6.8 C 4.8 km/h
1272 27-12-2015 20:55:00 6.9 C 7.31 g/m*3 5.79 C 6.4 km/h
1273 27-12-2015 21:00:00 6.8 C 7.19 g/m*3 6.8 C 3.2 km/h
1274 27-12-2015 21:05:00 6.7 C 7.14 g/m*3 6.7 C 0 km/h
1275 27-12-2015 21:10:00 6.4 C 6.93 g/m*3 6.4 C 0 km/h
Sensor: Nr:Datum:Temp:Abs-Feuchte:Windchill:Wind:
Aussen-T/F 1276 27-12-2015 21:15:00 6.2 C 6.84 g/m*3 6.2 C 1.6 km/h
1277 27-12-2015 21:20:00 6.2 C 6.91 g/m*3 6.2 C 1.6 km/h
1278 27-12-2015 21:25:00 6.1 C 6.87 g/m*3 6.1 C 0 km/h
1279 27-12-2015 21:30:00 6 C 6.82 g/m*3 6 C 0 km/h
1280 27-12-2015 21:35:00 5.9 C 6.78 g/m*3 5.9 C 0 km/h
1281 27-12-2015 21:40:00 5.8 C 6.73 g/m*3 5.8 C 1.6 km/h
1282 27-12-2015 21:45:00 5.7 C 6.69 g/m*3 5.7 C 0 km/h
1283 27-12-2015 21:50:00 5.7 C 6.69 g/m*3 5.7 C 0 km/h
1284 27-12-2015 21:55:00 5.6 C 6.72 g/m*3 5.6 C 1.6 km/h
1285 27-12-2015 22:00:00 5.5 C 6.67 g/m*3 5.5 C 3.2 km/h
1286 27-12-2015 22:05:00 5.4 C 6.63 g/m*3 5.4 C 0 km/h
1287 27-12-2015 22:10:00 5.4 C 6.63 g/m*3 5.4 C 0 km/h
1288 27-12-2015 22:15:00 5.3 C 6.58 g/m*3 5.3 C 1.6 km/h
1289 27-12-2015 22:20:00 5.2 C 6.54 g/m*3 5.2 C 3.2 km/h
1290 27-12-2015 22:25:00 5.2 C 6.54 g/m*3 5.2 C 3.2 km/h
1291 27-12-2015 22:30:00 5.2 C 6.54 g/m*3 5.2 C 0 km/h
1292 27-12-2015 22:35:00 5.2 C 6.54 g/m*3 5.2 C 0 km/h
1293 27-12-2015 22:40:00 5 C 6.46 g/m*3 5 C 0 km/h
1294 27-12-2015 22:45:00 5 C 6.46 g/m*3 5 C 0 km/h
1295 27-12-2015 22:50:00 5.1 C 6.5 g/m*3 5.1 C 0 km/h
1296 27-12-2015 22:55:00 5.1 C 6.5 g/m*3 5.1 C 0 km/h
1297 27-12-2015 23:00:00 5 C 6.46 g/m*3 5 C 0 km/h
1298 27-12-2015 23:05:00 4.9 C 6.41 g/m*3 4.9 C 0 km/h
1299 27-12-2015 23:10:00 4.8 C 6.37 g/m*3 4.8 C 0 km/h
1300 27-12-2015 23:15:00 4.7 C 6.33 g/m*3 4.7 C 0 km/h
Sensor: Nr:Datum:Temp:Abs-Feuchte:Windchill:Wind:
Aussen-T/F 1301 27-12-2015 23:20:00 4.7 C 6.33 g/m*3 4.7 C 0 km/h
1302 27-12-2015 23:25:00 4.5 C 6.24 g/m*3 4.5 C 0 km/h
1303 27-12-2015 23:30:00 4.3 C 6.16 g/m*3 4.3 C 0 km/h
1304 27-12-2015 23:35:00 4.3 C 6.16 g/m*3 4.3 C 0 km/h
1305 27-12-2015 23:40:00 4.3 C 6.16 g/m*3 4.3 C 0 km/h
1306 27-12-2015 23:45:00 4.2 C 6.12 g/m*3 4.2 C 0 km/h
1307 27-12-2015 23:50:00 4.3 C 6.23 g/m*3 4.3 C 0 km/h
1308 27-12-2015 23:55:00 4.4 C 6.27 g/m*3 4.4 C 3.2 km/h
1309 28-12-2015 00:00:00 4.4 C 6.27 g/m*3 4.4 C 0 km/h
1310 28-12-2015 00:05:00 4.3 C 6.23 g/m*3 4.3 C 0 km/h
1311 28-12-2015 00:10:00 4.2 C 6.19 g/m*3 4.2 C 3.2 km/h
1312 28-12-2015 00:15:00 4.2 C 6.19 g/m*3 4.2 C 3.2 km/h
1313 28-12-2015 00:20:00 4.2 C 6.19 g/m*3 4.2 C 0 km/h
1314 28-12-2015 00:25:00 4.1 C 6.14 g/m*3 4.1 C 0 km/h
1315 28-12-2015 00:30:00 3.9 C 6.06 g/m*3 3.9 C 0 km/h
1316 28-12-2015 00:35:00 3.8 C 6.02 g/m*3 3.8 C 0 km/h
1317 28-12-2015 00:40:00 3.7 C 5.98 g/m*3 3.7 C 0 km/h
1318 28-12-2015 00:45:00 3.6 C 5.94 g/m*3 3.6 C 0 km/h
1319 28-12-2015 00:50:00 3.5 C 5.9 g/m*3 3.5 C 0 km/h
1320 28-12-2015 00:55:00 3.7 C 5.98 g/m*3 3.7 C 0 km/h
1321 28-12-2015 01:00:00 3.9 C 6.06 g/m*3 3.9 C 0 km/h
1322 28-12-2015 01:05:00 3.9 C 6.06 g/m*3 3.9 C 0 km/h
1323 28-12-2015 01:10:00 3.9 C 6.06 g/m*3 3.9 C 0 km/h
1324 28-12-2015 01:15:00 3.8 C 6.02 g/m*3 3.8 C 0 km/h
1325 28-12-2015 01:20:00 3.8 C 6.02 g/m*3 3.8 C 0 km/h
Sensor: Nr:Datum:Temp:Abs-Feuchte:Windchill:Wind:
Aussen-T/F 1326 28-12-2015 01:25:00 3.8 C 6.02 g/m*3 3.8 C 0 km/h
1327 28-12-2015 01:30:00 3.7 C 5.98 g/m*3 3.7 C 0 km/h
1328 28-12-2015 01:35:00 3.6 C 5.94 g/m*3 3.6 C 0 km/h
1329 28-12-2015 01:40:00 3.6 C 5.94 g/m*3 3.6 C 0 km/h
1330 28-12-2015 01:45:00 3.4 C 5.86 g/m*3 3.4 C 0 km/h
1331 28-12-2015 01:50:00 3.3 C 5.82 g/m*3 3.3 C 0 km/h
1332 28-12-2015 01:55:00 3.2 C 5.79 g/m*3 3.2 C 0 km/h
1333 28-12-2015 02:00:00 3 C 5.71 g/m*3 3 C 0 km/h
1334 28-12-2015 02:05:00 3 C 5.71 g/m*3 3 C 0 km/h
1335 28-12-2015 02:10:00 3.1 C 5.75 g/m*3 3.1 C 0 km/h
1336 28-12-2015 02:15:00 3.1 C 5.75 g/m*3 3.1 C 0 km/h
1337 28-12-2015 02:20:00 3.2 C 5.79 g/m*3 3.2 C 0 km/h
1338 28-12-2015 02:25:00 3.2 C 5.85 g/m*3 3.2 C 0 km/h
1339 28-12-2015 02:30:00 3.3 C 5.88 g/m*3 3.3 C 0 km/h
1340 28-12-2015 02:35:00 3.2 C 5.79 g/m*3 3.2 C 0 km/h
1341 28-12-2015 02:40:00 3.1 C 5.75 g/m*3 3.1 C 0 km/h
1342 28-12-2015 02:45:00 3.1 C 5.81 g/m*3 3.1 C 0 km/h
1343 28-12-2015 02:50:00 3.2 C 5.85 g/m*3 3.2 C 3.2 km/h
1344 28-12-2015 02:55:00 3.3 C 5.88 g/m*3 3.3 C 3.2 km/h
1345 28-12-2015 03:00:00 3.3 C 5.88 g/m*3 3.3 C 0 km/h
1346 28-12-2015 03:05:00 3.2 C 5.85 g/m*3 3.2 C 0 km/h
1347 28-12-2015 03:10:00 3 C 5.71 g/m*3 3 C 0 km/h
1348 28-12-2015 03:15:00 2.8 C 5.63 g/m*3 2.8 C 1.6 km/h
1349 28-12-2015 03:20:00 2.9 C 5.73 g/m*3 2.9 C 0 km/h
1350 28-12-2015 03:25:00 2.9 C 5.73 g/m*3 2.9 C 0 km/h
Sensor: Nr:Datum:Temp:Abs-Feuchte:Windchill:Wind:
Aussen-T/F 1351 28-12-2015 03:30:00 3 C 5.77 g/m*3 3 C 0 km/h
1352 28-12-2015 03:35:00 3 C 5.77 g/m*3 3 C 0 km/h
1353 28-12-2015 03:40:00 3 C 5.77 g/m*3 3 C 0 km/h
1354 28-12-2015 03:45:00 2.9 C 5.73 g/m*3 2.9 C 0 km/h
1355 28-12-2015 03:50:00 2.9 C 5.73 g/m*3 2.9 C 0 km/h
1356 28-12-2015 03:55:00 3 C 5.77 g/m*3 3 C 0 km/h
1357 28-12-2015 04:00:00 3 C 5.77 g/m*3 3 C 0 km/h
1358 28-12-2015 04:05:00 3 C 5.77 g/m*3 3 C 1.6 km/h
1359 28-12-2015 04:10:00 2.9 C 5.73 g/m*3 2.9 C 0 km/h
1360 28-12-2015 04:15:00 2.8 C 5.69 g/m*3 2.8 C 0 km/h
1361 28-12-2015 04:20:00 2.8 C 5.63 g/m*3 2.8 C 0 km/h
1362 28-12-2015 04:25:00 2.7 C 5.59 g/m*3 2.7 C 0 km/h
1363 28-12-2015 04:30:00 2.7 C 5.65 g/m*3 2.7 C 0 km/h
1364 28-12-2015 04:35:00 2.7 C 5.65 g/m*3 2.7 C 0 km/h
1365 28-12-2015 04:40:00 2.8 C 5.69 g/m*3 2.8 C 0 km/h
1366 28-12-2015 04:45:00 2.8 C 5.69 g/m*3 2.8 C 0 km/h
1367 28-12-2015 04:50:00 2.8 C 5.69 g/m*3 2.8 C 0 km/h
1368 28-12-2015 04:55:00 2.7 C 5.65 g/m*3 2.7 C 0 km/h
1369 28-12-2015 05:00:00 2.7 C 5.65 g/m*3 2.7 C 0 km/h
1370 28-12-2015 05:05:00 2.6 C 5.61 g/m*3 2.6 C 0 km/h
1371 28-12-2015 05:10:00 2.6 C 5.61 g/m*3 2.6 C 1.6 km/h
1372 28-12-2015 05:15:00 2.6 C 5.61 g/m*3 2.6 C 1.6 km/h
1373 28-12-2015 05:20:00 2.6 C 5.61 g/m*3 2.6 C 0 km/h
1374 28-12-2015 05:25:00 2.6 C 5.61 g/m*3 2.6 C 0 km/h
1375 28-12-2015 05:30:00 2.5 C 5.58 g/m*3 2.5 C 0 km/h
Sensor: Nr:Datum:Temp:Abs-Feuchte:Windchill:Wind:
Aussen-T/F 1376 28-12-2015 05:35:00 2.5 C 5.58 g/m*3 2.5 C 0 km/h
1377 28-12-2015 05:40:00 2.6 C 5.61 g/m*3 2.6 C 0 km/h
1378 28-12-2015 05:45:00 2.6 C 5.61 g/m*3 2.6 C 0 km/h
1379 28-12-2015 05:50:00 2.6 C 5.61 g/m*3 2.6 C 0 km/h
1380 28-12-2015 05:55:00 2.6 C 5.61 g/m*3 2.6 C 0 km/h
1381 28-12-2015 06:00:00 2.6 C 5.61 g/m*3 2.6 C 0 km/h
1382 28-12-2015 06:05:00 2.7 C 5.65 g/m*3 2.7 C 0 km/h
1383 28-12-2015 06:10:00 2.6 C 5.61 g/m*3 2.6 C 0 km/h
1384 28-12-2015 06:15:00 2.6 C 5.61 g/m*3 2.6 C 0 km/h
1385 28-12-2015 06:20:00 2.6 C 5.61 g/m*3 2.6 C 0 km/h
1386 28-12-2015 06:25:00 2.5 C 5.58 g/m*3 2.5 C 0 km/h
1387 28-12-2015 06:30:00 2.6 C 5.61 g/m*3 2.6 C 0 km/h
1388 28-12-2015 06:35:00 2.6 C 5.61 g/m*3 2.6 C 1.6 km/h
1389 28-12-2015 06:40:00 2.6 C 5.61 g/m*3 2.6 C 0 km/h
1390 28-12-2015 06:45:00 2.6 C 5.61 g/m*3 2.6 C 1.6 km/h
1391 28-12-2015 06:50:00 2.6 C 5.61 g/m*3 2.6 C 0 km/h
1392 28-12-2015 06:55:00 2.5 C 5.58 g/m*3 2.5 C 0 km/h
1393 28-12-2015 07:00:00 2.5 C 5.58 g/m*3 2.5 C 0 km/h
1394 28-12-2015 07:05:00 2.4 C 5.54 g/m*3 2.4 C 0 km/h
1395 28-12-2015 07:10:00 2.4 C 5.54 g/m*3 2.4 C 1.6 km/h
1396 28-12-2015 07:15:00 2.4 C 5.54 g/m*3 2.4 C 3.2 km/h
1397 28-12-2015 07:20:00 2.4 C 5.54 g/m*3 2.4 C 3.2 km/h
1398 28-12-2015 07:25:00 2.3 C 5.5 g/m*3 2.3 C 3.2 km/h
1399 28-12-2015 07:30:00 2.3 C 5.5 g/m*3 2.3 C 1.6 km/h
1400 28-12-2015 07:35:00 2.2 C 5.46 g/m*3 2.2 C 1.6 km/h
Sensor: Nr:Datum:Temp:Abs-Feuchte:Windchill:Wind:
Aussen-T/F 1401 28-12-2015 07:40:00 2.1 C 5.43 g/m*3 2.1 C 0 km/h
1402 28-12-2015 07:45:00 2.1 C 5.43 g/m*3 2.1 C 1.6 km/h
1403 28-12-2015 07:50:00 2.1 C 5.43 g/m*3 2.1 C 1.6 km/h
1404 28-12-2015 07:55:00 2 C 5.39 g/m*3 2 C 0 km/h
1405 28-12-2015 08:00:00 2 C 5.39 g/m*3 2 C 0 km/h
1406 28-12-2015 08:05:00 2 C 5.39 g/m*3 2 C 0 km/h
1407 28-12-2015 08:10:00 2 C 5.39 g/m*3 2 C 0 km/h
1408 28-12-2015 08:15:00 2 C 5.39 g/m*3 2 C 0 km/h
1409 28-12-2015 08:20:00 1.9 C 5.35 g/m*3 1.9 C 1.6 km/h
1410 28-12-2015 08:25:00 1.9 C 5.35 g/m*3 1.9 C 0 km/h
1411 28-12-2015 08:30:00 1.9 C 5.35 g/m*3 1.9 C 0 km/h
1412 28-12-2015 08:35:00 1.9 C 5.35 g/m*3 1.9 C 0 km/h
1413 28-12-2015 08:40:00 1.9 C 5.35 g/m*3 1.9 C 0 km/h
1414 28-12-2015 08:45:00 1.8 C 5.32 g/m*3 1.8 C 0 km/h
1415 28-12-2015 08:50:00 1.8 C 5.32 g/m*3 1.8 C 0 km/h
1416 28-12-2015 08:55:00 1.8 C 5.32 g/m*3 1.8 C 1.6 km/h
1417 28-12-2015 09:00:00 1.8 C 5.32 g/m*3 1.8 C 0 km/h
1418 28-12-2015 09:05:00 1.8 C 5.32 g/m*3 1.8 C 0 km/h
1419 28-12-2015 09:10:00 1.7 C 5.28 g/m*3 1.7 C 0 km/h
1420 28-12-2015 09:15:00 1.7 C 5.28 g/m*3 1.7 C 0 km/h
1421 28-12-2015 09:20:00 1.8 C 5.32 g/m*3 1.8 C 0 km/h
1422 28-12-2015 09:25:00 1.8 C 5.32 g/m*3 1.8 C 0 km/h
1423 28-12-2015 09:30:00 1.8 C 5.32 g/m*3 1.8 C 0 km/h
1424 28-12-2015 09:35:00 1.8 C 5.32 g/m*3 1.8 C 0 km/h
1425 28-12-2015 09:40:00 1.9 C 5.35 g/m*3 1.9 C 0 km/h
Sensor: Nr:Datum:Temp:Abs-Feuchte:Windchill:Wind:
Aussen-T/F 1426 28-12-2015 09:45:00 1.8 C 5.32 g/m*3 1.8 C 0 km/h
1427 28-12-2015 09:50:00 1.9 C 5.35 g/m*3 1.9 C 0 km/h
1428 28-12-2015 09:55:00 1.9 C 5.35 g/m*3 1.9 C 0 km/h
1429 28-12-2015 10:00:00 2 C 5.39 g/m*3 2 C 0 km/h
1430 28-12-2015 10:05:00 2.1 C 5.43 g/m*3 2.1 C 0 km/h
1431 28-12-2015 10:10:00 2.1 C 5.43 g/m*3 2.1 C 0 km/h
1432 28-12-2015 10:15:00 2.2 C 5.46 g/m*3 2.2 C 0 km/h
1433 28-12-2015 10:20:00 2.2 C 5.46 g/m*3 2.2 C 0 km/h
1434 28-12-2015 10:25:00 2.3 C 5.5 g/m*3 2.3 C 0 km/h
1435 28-12-2015 10:30:00 2.3 C 5.5 g/m*3 2.3 C 0 km/h
1436 28-12-2015 10:35:00 2.4 C 5.54 g/m*3 2.4 C 0 km/h
1437 28-12-2015 10:40:00 2.4 C 5.54 g/m*3 2.4 C 0 km/h
1438 28-12-2015 10:45:00 2.6 C 5.61 g/m*3 2.6 C 0 km/h
1439 28-12-2015 10:50:00 2.6 C 5.61 g/m*3 2.6 C 0 km/h
1440 28-12-2015 10:55:00 2.7 C 5.65 g/m*3 2.7 C 0 km/h
1441 28-12-2015 11:00:00 2.7 C 5.71 g/m*3 2.7 C 0 km/h
1442 28-12-2015 11:05:00 2.8 C 5.75 g/m*3 2.8 C 0 km/h
1443 28-12-2015 11:10:00 2.8 C 5.69 g/m*3 2.8 C 0 km/h
1444 28-12-2015 11:15:00 2.8 C 5.69 g/m*3 2.8 C 0 km/h
1445 28-12-2015 11:20:00 2.9 C 5.73 g/m*3 2.9 C 0 km/h
1446 28-12-2015 11:25:00 2.9 C 5.73 g/m*3 2.9 C 0 km/h
1447 28-12-2015 11:30:00 3 C 5.77 g/m*3 3 C 0 km/h
1448 28-12-2015 11:35:00 3.1 C 5.87 g/m*3 3.1 C 0 km/h
1449 28-12-2015 11:40:00 3.2 C 5.91 g/m*3 3.2 C 0 km/h
1450 28-12-2015 11:45:00 3.2 C 5.85 g/m*3 3.2 C 0 km/h
Sensor: Nr:Datum:Temp:Abs-Feuchte:Windchill:Wind:
Aussen-T/F 1451 28-12-2015 11:50:00 3.4 C 5.99 g/m*3 3.4 C 1.6 km/h
1452 28-12-2015 11:55:00 3.5 C 6.03 g/m*3 3.5 C 1.6 km/h
1453 28-12-2015 12:00:00 3.5 C 6.03 g/m*3 3.5 C 1.6 km/h
1454 28-12-2015 12:05:00 3.6 C 6.07 g/m*3 3.6 C 1.6 km/h
1455 28-12-2015 12:10:00 3.6 C 6.07 g/m*3 3.6 C 0 km/h
1456 28-12-2015 12:15:00 3.6 C 6.07 g/m*3 3.6 C 0 km/h
1457 28-12-2015 12:20:00 3.5 C 6.03 g/m*3 3.5 C 0 km/h
1458 28-12-2015 12:25:00 3.5 C 6.03 g/m*3 3.5 C 0 km/h
1459 28-12-2015 12:30:00 3.5 C 6.03 g/m*3 3.5 C 0 km/h
1460 28-12-2015 12:35:00 3.5 C 6.03 g/m*3 3.5 C 0 km/h
1461 28-12-2015 12:40:00 3.5 C 6.03 g/m*3 3.5 C 0 km/h
1462 28-12-2015 12:45:00 3.5 C 6.03 g/m*3 3.5 C 0 km/h
1463 28-12-2015 12:50:00 3.5 C 6.03 g/m*3 3.5 C 0 km/h
1464 28-12-2015 12:55:00 3.5 C 6.03 g/m*3 3.5 C 0 km/h
1465 28-12-2015 13:00:00 3.5 C 6.03 g/m*3 3.5 C 0 km/h
1466 28-12-2015 13:05:00 3.6 C 6.07 g/m*3 3.6 C 0 km/h
1467 28-12-2015 13:10:00 3.6 C 6 g/m*3 3.6 C 0 km/h
1468 28-12-2015 13:15:00 3.6 C 6 g/m*3 3.6 C 0 km/h
1469 28-12-2015 13:20:00 3.7 C 6.04 g/m*3 3.7 C 0 km/h
1470 28-12-2015 13:25:00 3.7 C 6.04 g/m*3 3.7 C 0 km/h
1471 28-12-2015 13:30:00 3.7 C 6.04 g/m*3 3.7 C 0 km/h
1472 28-12-2015 13:35:00 3.7 C 6.11 g/m*3 3.7 C 0 km/h
1473 28-12-2015 13:40:00 3.8 C 6.15 g/m*3 3.8 C 1.6 km/h
1474 28-12-2015 13:45:00 3.9 C 6.19 g/m*3 3.9 C 0 km/h
1475 28-12-2015 13:50:00 4.1 C 6.27 g/m*3 4.1 C 1.6 km/h
Sensor: Nr:Datum:Temp:Abs-Feuchte:Windchill:Wind:
Aussen-T/F 1476 28-12-2015 13:55:00 4.2 C 6.31 g/m*3 4.2 C 0 km/h
1477 28-12-2015 14:00:00 4.2 C 6.31 g/m*3 4.2 C 0 km/h
1478 28-12-2015 14:05:00 4.3 C 6.36 g/m*3 4.3 C 1.6 km/h
1479 28-12-2015 14:10:00 4.3 C 6.36 g/m*3 4.3 C 1.6 km/h
1480 28-12-2015 14:15:00 4.3 C 6.36 g/m*3 4.3 C 0 km/h
1481 28-12-2015 14:20:00 4.3 C 6.36 g/m*3 4.3 C 0 km/h
1482 28-12-2015 14:25:00 4.4 C 6.4 g/m*3 4.4 C 1.6 km/h
1483 28-12-2015 14:30:00 4.5 C 6.44 g/m*3 4.5 C 4.8 km/h
1484 28-12-2015 14:35:00 4.7 C 6.53 g/m*3 4.7 C 4.8 km/h
1485 28-12-2015 14:40:00 4.8 C 6.57 g/m*3 4.8 C 0 km/h
1486 28-12-2015 14:45:00 4.9 C 6.62 g/m*3 4.9 C 0 km/h
1487 28-12-2015 14:50:00 5 C 6.66 g/m*3 5 C 0 km/h
1488 28-12-2015 14:55:00 4.9 C 6.62 g/m*3 4.9 C 0 km/h
1489 28-12-2015 15:00:00 4.9 C 6.62 g/m*3 4.9 C 0 km/h
1490 28-12-2015 15:05:00 4.9 C 6.62 g/m*3 4.9 C 0 km/h
1491 28-12-2015 15:10:00 4.9 C 6.62 g/m*3 4.9 C 0 km/h
1492 28-12-2015 15:15:00 4.9 C 6.62 g/m*3 4.9 C 0 km/h
1493 28-12-2015 15:20:00 4.8 C 6.57 g/m*3 4.8 C 0 km/h
1494 28-12-2015 15:25:00 4.8 C 6.57 g/m*3 4.8 C 0 km/h
1495 28-12-2015 15:30:00 4.7 C 6.53 g/m*3 4.7 C 0 km/h
1496 28-12-2015 15:35:00 4.6 C 6.42 g/m*3 4.6 C 0 km/h
1497 28-12-2015 15:40:00 4.5 C 6.38 g/m*3 4.5 C 0 km/h
1498 28-12-2015 15:45:00 4.4 C 6.4 g/m*3 4.4 C 0 km/h
1499 28-12-2015 15:50:00 4.3 C 6.36 g/m*3 4.3 C 0 km/h
1500 28-12-2015 15:55:00 4.3 C 6.29 g/m*3 4.3 C 0 km/h
Sensor: Nr:Datum:Temp:Abs-Feuchte:Windchill:Wind:
Aussen-T/F 1501 28-12-2015 16:00:00 4.3 C 6.29 g/m*3 4.3 C 1.6 km/h
1502 28-12-2015 16:05:00 4.4 C 6.4 g/m*3 4.4 C 1.6 km/h
1503 28-12-2015 16:10:00 4.6 C 6.42 g/m*3 4.6 C 1.6 km/h
1504 28-12-2015 16:15:00 4.6 C 6.42 g/m*3 4.6 C 3.2 km/h
1505 28-12-2015 16:20:00 4.6 C 6.48 g/m*3 4.6 C 3.2 km/h
1506 28-12-2015 16:25:00 4.6 C 6.48 g/m*3 4.6 C 3.2 km/h
1507 28-12-2015 16:30:00 4.5 C 6.44 g/m*3 4.5 C 3.2 km/h
1508 28-12-2015 16:35:00 4.3 C 6.36 g/m*3 4.3 C 0 km/h
1509 28-12-2015 16:40:00 4.2 C 6.25 g/m*3 4.2 C 3.2 km/h
1510 28-12-2015 16:45:00 4.1 C 6.21 g/m*3 4.1 C 3.2 km/h
1511 28-12-2015 16:50:00 3.9 C 6.13 g/m*3 3.9 C 3.2 km/h
1512 28-12-2015 16:55:00 3.8 C 6.09 g/m*3 3.8 C 4.8 km/h
1513 28-12-2015 17:00:00 3.7 C 6.04 g/m*3 3.7 C 3.2 km/h
1514 28-12-2015 17:05:00 3.6 C 6 g/m*3 3.6 C 1.6 km/h
1515 28-12-2015 17:10:00 3.4 C 5.92 g/m*3 3.4 C 1.6 km/h
1516 28-12-2015 17:15:00 3.3 C 5.88 g/m*3 3.3 C 0 km/h
1517 28-12-2015 17:20:00 3.2 C 5.85 g/m*3 3.2 C 1.6 km/h
1518 28-12-2015 17:25:00 3.1 C 5.81 g/m*3 3.1 C 0 km/h
1519 28-12-2015 17:30:00 3 C 5.77 g/m*3 3 C 0 km/h
1520 28-12-2015 17:35:00 2.8 C 5.69 g/m*3 2.8 C 0 km/h
1521 28-12-2015 17:40:00 2.8 C 5.69 g/m*3 2.8 C 0 km/h
1522 28-12-2015 17:45:00 2.7 C 5.65 g/m*3 2.7 C 0 km/h
1523 28-12-2015 17:50:00 2.5 C 5.58 g/m*3 2.5 C 0 km/h
1524 28-12-2015 17:55:00 2.3 C 5.5 g/m*3 2.3 C 0 km/h
1525 28-12-2015 18:00:00 2.3 C 5.5 g/m*3 2.3 C 0 km/h
Sensor: Nr:Datum:Temp:Abs-Feuchte:Windchill:Wind:
Aussen-T/F 1526 28-12-2015 18:05:00 2.2 C 5.46 g/m*3 2.2 C 0 km/h
1527 28-12-2015 18:10:00 2.1 C 5.43 g/m*3 2.1 C 0 km/h
1528 28-12-2015 18:15:00 2.1 C 5.43 g/m*3 2.1 C 0 km/h
1529 28-12-2015 18:20:00 1.9 C 5.35 g/m*3 1.9 C 0 km/h
1530 28-12-2015 18:25:00 1.9 C 5.35 g/m*3 1.9 C 0 km/h
1531 28-12-2015 18:30:00 1.8 C 5.32 g/m*3 1.8 C 0 km/h
1532 28-12-2015 18:35:00 1.8 C 5.32 g/m*3 1.8 C 0 km/h
1533 28-12-2015 18:40:00 1.7 C 5.28 g/m*3 1.7 C 0 km/h
1534 28-12-2015 18:45:00 1.7 C 5.28 g/m*3 1.7 C 0 km/h
1535 28-12-2015 18:50:00 1.7 C 5.28 g/m*3 1.7 C 0 km/h
1536 28-12-2015 18:55:00 1.7 C 5.28 g/m*3 1.7 C 0 km/h
1537 28-12-2015 19:00:00 1.6 C 5.25 g/m*3 1.6 C 0 km/h
1538 28-12-2015 19:05:00 1.6 C 5.25 g/m*3 1.6 C 0 km/h
1539 28-12-2015 19:10:00 1.6 C 5.25 g/m*3 1.6 C 0 km/h
1540 28-12-2015 19:15:00 1.6 C 5.25 g/m*3 1.6 C 0 km/h
1541 28-12-2015 19:20:00 1.6 C 5.25 g/m*3 1.6 C 0 km/h
1542 28-12-2015 19:25:00 1.5 C 5.21 g/m*3 1.5 C 0 km/h
1543 28-12-2015 19:30:00 1.5 C 5.21 g/m*3 1.5 C 0 km/h
1544 28-12-2015 19:35:00 1.4 C 5.17 g/m*3 1.4 C 0 km/h
1545 28-12-2015 19:40:00 1.4 C 5.17 g/m*3 1.4 C 0 km/h
1546 28-12-2015 19:45:00 1.3 C 5.14 g/m*3 1.3 C 0 km/h
1547 28-12-2015 19:50:00 1.3 C 5.14 g/m*3 1.3 C 0 km/h
1548 28-12-2015 19:55:00 1.3 C 5.14 g/m*3 1.3 C 0 km/h
1549 28-12-2015 20:00:00 1.3 C 5.14 g/m*3 1.3 C 0 km/h
1550 28-12-2015 20:05:00 1.3 C 5.14 g/m*3 1.3 C 0 km/h
Sensor: Nr:Datum:Temp:Abs-Feuchte:Windchill:Wind:
Aussen-T/F 1551 28-12-2015 20:10:00 1.3 C 5.14 g/m*3 1.3 C 0 km/h
1552 28-12-2015 20:15:00 1.3 C 5.14 g/m*3 1.3 C 0 km/h
1553 28-12-2015 20:20:00 1.2 C 5.1 g/m*3 1.2 C 0 km/h
1554 28-12-2015 20:25:00 1.2 C 5.1 g/m*3 1.2 C 0 km/h
1555 28-12-2015 20:30:00 1.2 C 5.1 g/m*3 1.2 C 0 km/h
1556 28-12-2015 20:35:00 1.1 C 5.07 g/m*3 1.1 C 0 km/h
1557 28-12-2015 20:40:00 1.1 C 5.07 g/m*3 1.1 C 0 km/h
1558 28-12-2015 20:45:00 1.1 C 5.07 g/m*3 1.1 C 0 km/h
1559 28-12-2015 20:50:00 1.1 C 5.07 g/m*3 1.1 C 0 km/h
1560 28-12-2015 20:55:00 1.1 C 5.07 g/m*3 1.1 C 0 km/h
1561 28-12-2015 21:00:00 1 C 5.03 g/m*3 1 C 0 km/h
1562 28-12-2015 21:05:00 1 C 5.03 g/m*3 1 C 0 km/h
1563 28-12-2015 21:10:00 0.9 C 5 g/m*3 0.9 C 0 km/h
1564 28-12-2015 21:15:00 0.9 C 5 g/m*3 0.9 C 1.6 km/h
1565 28-12-2015 21:20:00 1.1 C 5.07 g/m*3 1.1 C 1.6 km/h
1566 28-12-2015 21:25:00 1.1 C 5.07 g/m*3 1.1 C 1.6 km/h
1567 28-12-2015 21:30:00 1.1 C 5.07 g/m*3 1.1 C 0 km/h
1568 28-12-2015 21:35:00 1 C 5.03 g/m*3 1 C 0 km/h
1569 28-12-2015 21:40:00 0.9 C 5 g/m*3 0.9 C 0 km/h
1570 28-12-2015 21:45:00 0.8 C 4.97 g/m*3 0.8 C 0 km/h
1571 28-12-2015 21:50:00 0.9 C 5 g/m*3 0.9 C 0 km/h
1572 28-12-2015 21:55:00 1 C 5.03 g/m*3 1 C 0 km/h
1573 28-12-2015 22:00:00 1.1 C 5.07 g/m*3 1.1 C 4.8 km/h
1574 28-12-2015 22:05:00 1.4 C 5.17 g/m*3 1.4 C 1.6 km/h
1575 28-12-2015 22:10:00 1.6 C 5.3 g/m*3 1.6 C 1.6 km/h
Sensor: Nr:Datum:Temp:Abs-Feuchte:Windchill:Wind:
Aussen-T/F 1576 28-12-2015 22:15:00 1.7 C 5.34 g/m*3 1.7 C 1.6 km/h
1577 28-12-2015 22:20:00 1.6 C 5.3 g/m*3 1.6 C 1.6 km/h
1578 28-12-2015 22:25:00 1.4 C 5.17 g/m*3 1.4 C 1.6 km/h
1579 28-12-2015 22:30:00 1.3 C 5.19 g/m*3 1.3 C 1.6 km/h
1580 28-12-2015 22:35:00 1.2 C 5.16 g/m*3 1.2 C 1.6 km/h
1581 28-12-2015 22:40:00 1.1 C 5.07 g/m*3 1.1 C 1.6 km/h
1582 28-12-2015 22:45:00 1.1 C 5.07 g/m*3 1.1 C 0 km/h
1583 28-12-2015 22:50:00 1 C 5.03 g/m*3 1 C 1.6 km/h
1584 28-12-2015 22:55:00 1 C 5.03 g/m*3 1 C 0 km/h
1585 28-12-2015 23:00:00 1 C 5.03 g/m*3 1 C 0 km/h
1586 28-12-2015 23:05:00 1 C 5.03 g/m*3 1 C 0 km/h
1587 28-12-2015 23:10:00 1 C 5.03 g/m*3 1 C 0 km/h
1588 28-12-2015 23:15:00 0.9 C 5 g/m*3 0.9 C 0 km/h
1589 28-12-2015 23:20:00 0.8 C 4.97 g/m*3 0.8 C 3.2 km/h
1590 28-12-2015 23:25:00 0.8 C 4.97 g/m*3 0.8 C 0 km/h
1591 28-12-2015 23:30:00 0.8 C 5.02 g/m*3 0.8 C 0 km/h
1592 28-12-2015 23:35:00 0.9 C 5.05 g/m*3 0.9 C 1.6 km/h
1593 28-12-2015 23:40:00 0.9 C 5.05 g/m*3 0.9 C 1.6 km/h
1594 28-12-2015 23:45:00 0.8 C 4.97 g/m*3 0.8 C 0 km/h
1595 28-12-2015 23:50:00 0.8 C 4.97 g/m*3 0.8 C 0 km/h
1596 28-12-2015 23:55:00 0.7 C 4.93 g/m*3 0.7 C 0 km/h

Legende:
   Min
   Max


Maximal/Minimal-Werte vom 22.12.2015 - 28.12.2015

Sensor Min Max Avg
Temp
(Aussen-T/F)
0.7 °C
28-12-2015  23:55:00
13.3 °C
24-12-2015  15:40:00
8.95 °C
Abs-Feuchte
(Aussen-T/F)
4.93 g/m*3
28-12-2015  23:55:00
9.79 g/m*3
24-12-2015  12:35:00
7.89 g/m*3
Windchill
(Aussen-T/F)
0.7 C
28-12-2015  23:55:00
13.3 C
24-12-2015  15:40:00
8.75 C

Die Daten stammen von einer Davis Vantage Pro 2 Wetter-Station und werden unter Linux mit der Software wview2wettercgi und aufbereitet. Alle Angaben erfolgen ohne Gewähr für ihre Vollständigkeit oder Richtigkeit.
Kontakt: Rainer Krienke krienke@uni-koblenz.de . Meine Webseiten an der Uni Koblenz oder privat.
Version: $Revision: 0.78 $